M I D A S
Marine Information and Data Acquisition System
Tripno 2230 of the Zeeleeuw from 2011-08-17 06:11:50 to 2011-08-17 14:39:30
Back to CruiseResearch ActivitiesStationsMapUnderway DataData graphs

EquipmentUnitsComment
TimeDGPSUTC
LatitudeDGPSDM.mWGS84
LongitudeDGPSDM.mWGS84
TemperatureSBE03/SBE38deg celciusITS90
ConductivitySBE21S/mITS90
SalinitySBE21 Practical Salinity Units
ChlorophylAChelsea fluorimeterg/lCalibrated in Aceton
Missing or incorrect values are displayed as -999
Sea surface data collected by the RV Zeeleeuw from 2011-08-17 06:15:54 to 2011-08-17 14:50:24
                                                                                    Next 1000 lines
Time Latitude Longitude Temperature Conductivity Salinity ChlorophylA
2011-08-17 06:16:05 51°13.635 2°56.016 21.9144 0.019064 0.099337 -3.020363
2011-08-17 06:16:10 51°13.636 2°56.014 21.9109 0.019064 0.099337 -3.020363
2011-08-17 06:16:15 51°13.636 2°56.013 21.9432 0.019064 0.099338 -3.020363
2011-08-17 06:16:20 51°13.636 2°56.011 21.9575 0.019064 0.099338 -3.020363
2011-08-17 06:16:25 51°13.637 2°56.009 21.9598 0.019064 0.099339 -3.020363
2011-08-17 06:16:30 51°13.638 2°56.006 21.9492 0.019064 0.099339 -3.020363
2011-08-17 06:16:34 51°13.638 2°56.004 21.95 0.019064 0.099339 -3.020363
2011-08-17 06:16:40 51°13.639 2°56.001 21.9519 0.019064 0.099341 -3.020363
2011-08-17 06:16:46 51°13.64 2°55.997 21.952 0.019064 0.099342 -3.020363
2011-08-17 06:16:51 51°13.641 2°55.994 21.9408 0.019064 0.099342 -3.020363
2011-08-17 06:16:57 51°13.642 2°55.99 21.9461 0.019064 0.099344 -3.020363
2011-08-17 06:17:02 51°13.643 2°55.987 21.97 0.019064 0.099345 -3.020363
2011-08-17 06:17:08 51°13.644 2°55.982 21.9594 0.019064 0.099345 -3.020363
2011-08-17 06:17:13 51°13.645 2°55.979 21.9559 0.019064 0.099345 -3.020363
2011-08-17 06:17:18 51°13.646 2°55.975 21.9529 0.019064 0.099347 -3.020363
2011-08-17 06:17:23 51°13.647 2°55.97 21.955 0.019064 0.099347 -3.020363
2011-08-17 06:17:29 51°13.649 2°55.965 21.9579 0.019064 0.099348 -3.020363
2011-08-17 06:17:33 51°13.65 2°55.961 21.9415 0.019064 0.099348 -3.020363
2011-08-17 06:17:38 51°13.651 2°55.956 21.9421 0.019064 0.099348 -3.020363
2011-08-17 06:17:43 51°13.652 2°55.95 21.9353 0.019064 0.09935 -3.020363
2011-08-17 06:17:49 51°13.654 2°55.942 21.9454 0.019064 0.099351 -3.020363
2011-08-17 06:17:53 51°13.655 2°55.937 21.9521 0.019064 0.099351 -3.020363
2011-08-17 06:17:58 51°13.656 2°55.93 21.9492 0.019064 0.099352 -3.020363
2011-08-17 06:18:03 51°13.658 2°55.923 21.9466 0.019064 0.099354 -3.020363
2011-08-17 06:18:09 51°13.66 2°55.914 21.9621 0.019064 0.099354 -3.020363
2011-08-17 06:18:14 51°13.662 2°55.905 21.9855 0.019064 0.099354 -3.020363
2011-08-17 06:18:18 51°13.664 2°55.899 21.9809 0.019064 0.099355 -3.020363
2011-08-17 06:18:23 51°13.666 2°55.89 21.9812 0.019064 0.099357 -3.020363
2011-08-17 06:18:28 51°13.668 2°55.881 21.9699 0.019064 0.099357 -3.020363
2011-08-17 06:18:34 51°13.671 2°55.871 21.9698 0.019064 0.099358 -3.020363
2011-08-17 06:18:38 51°13.673 2°55.863 21.9651 0.019064 0.099358 -3.020363
2011-08-17 06:18:43 51°13.675 2°55.854 21.9782 0.019064 0.099358 -3.020363
2011-08-17 06:18:48 51°13.677 2°55.845 21.9731 0.019064 0.09936 -3.020363
2011-08-17 06:18:53 51°13.68 2°55.837 21.9786 0.019064 0.099361 -3.020363
2011-08-17 06:18:58 51°13.682 2°55.829 21.9762 0.019064 0.099361 -3.020363
2011-08-17 06:19:03 51°13.684 2°55.821 21.9867 0.019064 0.099363 -3.020363
2011-08-17 06:19:08 51°13.686 2°55.814 21.9735 0.019064 0.099363 -3.020363
2011-08-17 06:19:13 51°13.687 2°55.807 21.9866 0.019064 0.099363 -3.020363
2011-08-17 06:19:18 51°13.689 2°55.8 21.9821 0.019064 0.099364 -3.020363
2011-08-17 06:19:23 51°13.69 2°55.794 21.9834 0.019064 0.099365 -3.020363
2011-08-17 06:19:28 51°13.691 2°55.788 21.9669 0.019064 0.099365 -3.020363
2011-08-17 06:19:33 51°13.692 2°55.782 21.9609 0.019064 0.099367 -3.020363
2011-08-17 06:19:38 51°13.693 2°55.776 21.9809 0.019064 0.099367 -3.020363
2011-08-17 06:19:43 51°13.694 2°55.771 21.9741 0.019064 0.099368 -3.020363
2011-08-17 06:19:48 51°13.694 2°55.766 21.9576 0.019064 0.099368 -3.020363
2011-08-17 06:19:52 51°13.695 2°55.762 21.9581 0.019064 0.09937 -3.020363
2011-08-17 06:19:58 51°13.695 2°55.757 21.9684 0.019064 0.099371 -3.020363
2011-08-17 06:20:02 51°13.695 2°55.755 21.9726 0.019064 0.099371 -3.020363
2011-08-17 06:20:07 51°13.696 2°55.754 22.0034 0.019064 0.099371 -3.020363
2011-08-17 06:20:12 51°13.696 2°55.754 22.0077 0.019064 0.099371 -3.020363
2011-08-17 06:20:17 51°13.696 2°55.756 22.0197 0.019064 0.099373 -3.020363
2011-08-17 06:20:22 51°13.697 2°55.759 22.0258 0.019064 0.099374 -3.020363
2011-08-17 06:20:26 51°13.698 2°55.763 22.0106 0.019064 0.099374 -3.020363
2011-08-17 06:20:31 51°13.7 2°55.768 22.0043 0.019064 0.099375 -3.020363
2011-08-17 06:20:36 51°13.703 2°55.772 21.9598 0.019064 0.099375 -3.020363
2011-08-17 06:20:41 51°13.705 2°55.777 21.9614 0.019064 0.099377 -3.020363
2011-08-17 06:20:46 51°13.707 2°55.78 21.9293 0.019064 0.099378 -3.020363
2011-08-17 06:20:50 51°13.709 2°55.782 21.9284 0.019064 0.09938 -3.020363
2011-08-17 06:20:56 51°13.712 2°55.786 21.9094 0.019064 0.09938 -3.020363
2011-08-17 06:21:00 51°13.714 2°55.787 21.9201 0.019064 0.099381 -3.020363
2011-08-17 06:21:05 51°13.715 2°55.788 21.9302 0.019064 0.099381 -3.020363
2011-08-17 06:21:10 51°13.716 2°55.789 21.9394 0.019064 0.099383 -3.020363
2011-08-17 06:21:15 51°13.717 2°55.789 21.9438 0.019064 0.099383 -3.020363
2011-08-17 06:21:20 51°13.717 2°55.789 21.8935 0.019064 0.099384 -3.020363
2011-08-17 06:21:25 51°13.716 2°55.789 21.9223 0.019064 0.099386 -3.020363
2011-08-17 06:21:30 51°13.716 2°55.788 21.9517 0.019064 0.099386 -3.020363
2011-08-17 06:21:34 51°13.715 2°55.788 21.9551 0.019064 0.099386 -3.020363
2011-08-17 06:21:40 51°13.713 2°55.787 21.9603 0.019064 0.099387 -3.020363
2011-08-17 06:21:45 51°13.711 2°55.785 21.9873 0.019064 0.099387 -3.020363
2011-08-17 06:21:51 51°13.709 2°55.784 21.9878 0.019064 0.099388 -3.020363
2011-08-17 06:21:57 51°13.708 2°55.783 21.9901 0.019064 0.099388 -3.020363
2011-08-17 06:22:02 51°13.709 2°55.782 21.9985 0.019064 0.099388 -3.020363
2011-08-17 06:22:08 51°13.71 2°55.78 22.014 0.019064 0.099388 -3.020363
2011-08-17 06:22:13 51°13.713 2°55.779 22.019 0.019064 0.09939 -3.020363
2011-08-17 06:22:18 51°13.716 2°55.776 22.0118 0.019064 0.099391 -3.020363
2011-08-17 06:22:23 51°13.719 2°55.772 22.0071 0.019064 0.099391 -3.020363
2011-08-17 06:22:28 51°13.723 2°55.767 22.0047 0.019064 0.099393 -3.020363
2011-08-17 06:22:33 51°13.728 2°55.76 21.9923 0.019064 0.099393 -3.020363
2011-08-17 06:22:38 51°13.733 2°55.753 21.9767 0.019064 0.099393 -3.020363
2011-08-17 06:22:42 51°13.737 2°55.747 21.9496 0.019064 0.099393 -3.020363
2011-08-17 06:22:47 51°13.743 2°55.739 21.9641 0.019064 0.099394 -3.020363
2011-08-17 06:22:53 51°13.75 2°55.728 21.9308 0.019064 0.099396 -3.020363
2011-08-17 06:22:58 51°13.757 2°55.718 21.9229 0.019064 0.099397 -3.020363
2011-08-17 06:23:02 51°13.762 2°55.71 21.904 0.019064 0.099396 -3.020363
2011-08-17 06:23:07 51°13.769 2°55.701 21.9116 0.019064 0.099396 -3.020363
2011-08-17 06:23:12 51°13.776 2°55.691 21.9078 0.019167 0.099917 -3.020363
2011-08-17 06:23:18 51°13.786 2°55.68 21.9244 0.019064 0.099399 -3.020363
2011-08-17 06:23:22 51°13.792 2°55.672 21.8984 0.019167 0.099918 -3.020363
2011-08-17 06:23:27 51°13.8 2°55.662 21.8956 0.019167 0.099919 -3.020363
2011-08-17 06:23:32 51°13.809 2°55.653 21.894 0.019064 0.0994 -3.020363
2011-08-17 06:23:38 51°13.819 2°55.641 21.9012 0.019064 0.0994 -3.020363
2011-08-17 06:23:42 51°13.827 2°55.634 21.9004 0.019167 0.099921 -3.020363
2011-08-17 06:23:47 51°13.836 2°55.626 21.8978 0.019167 0.099921 -3.020363
2011-08-17 06:23:52 51°13.846 2°55.619 21.9184 0.019167 0.099922 -3.020363
2011-08-17 06:23:57 51°13.856 2°55.611 21.935 0.019167 0.099922 -3.020363
2011-08-17 06:24:02 51°13.866 2°55.603 21.9409 0.019167 0.099924 -3.020363
2011-08-17 06:24:07 51°13.876 2°55.595 21.9507 0.019167 0.099924 -3.020363
2011-08-17 06:24:12 51°13.886 2°55.588 21.9517 0.019167 0.099924 -3.020363
2011-08-17 06:24:17 51°13.896 2°55.58 21.958 0.019167 0.099925 -3.020363
2011-08-17 06:24:22 51°13.907 2°55.573 21.9588 0.019167 0.099925 -3.020363
2011-08-17 06:24:27 51°13.918 2°55.566 21.9593 0.019167 0.099928 -3.020363
2011-08-17 06:24:32 51°13.928 2°55.557 21.9615 0.019167 0.099928 -3.020363
2011-08-17 06:24:36 51°13.936 2°55.551 21.9649 0.019167 0.099928 -3.020363
2011-08-17 06:24:41 51°13.947 2°55.543 21.9659 0.019167 0.099928 -3.020363
2011-08-17 06:24:47 51°13.96 2°55.535 21.967 0.019167 0.09993 -3.020363
2011-08-17 06:24:52 51°13.971 2°55.527 21.9653 0.019167 0.09993 -3.020363
2011-08-17 06:24:58 51°13.984 2°55.518 21.9694 0.019167 0.099931 -3.020363
2011-08-17 06:25:02 51°13.992 2°55.512 21.9646 0.019167 0.099933 -3.020363
2011-08-17 06:25:08 51°14.005 2°55.503 21.9717 0.019167 0.099933 -3.020363
2011-08-17 06:25:13 51°14.016 2°55.495 21.966 0.019167 0.099933 -3.020363
2011-08-17 06:25:18 51°14.026 2°55.487 21.979 0.019167 0.099934 -3.020363
2011-08-17 06:25:23 51°14.037 2°55.48 21.987 0.019167 0.099935 -3.020363
2011-08-17 06:25:28 51°14.048 2°55.472 21.9876 0.019167 0.099935 -3.020363
2011-08-17 06:25:33 51°14.058 2°55.463 21.9837 0.019167 0.099935 -3.020363
2011-08-17 06:25:38 51°14.069 2°55.455 21.971 0.019167 0.099935 -3.020363
2011-08-17 06:25:42 51°14.077 2°55.448 21.9663 0.019167 0.099937 -3.020363
2011-08-17 06:25:47 51°14.088 2°55.44 21.9618 0.019167 0.099938 -3.020363
2011-08-17 06:25:52 51°14.098 2°55.432 21.9827 0.019167 0.099938 -3.020363
2011-08-17 06:25:58 51°14.11 2°55.422 21.9934 0.019167 0.09994 -3.020363
2011-08-17 06:26:02 51°14.119 2°55.416 21.9908 0.019167 0.09994 -3.020363
2011-08-17 06:26:07 51°14.129 2°55.408 21.9709 0.019167 0.09994 -3.020363
2011-08-17 06:26:12 51°14.14 2°55.4 21.9707 0.019167 0.099941 -3.020363
2011-08-17 06:26:17 51°14.15 2°55.392 21.9815 0.019167 0.099941 -3.020363
2011-08-17 06:26:23 51°14.163 2°55.382 22.0091 0.019167 0.099943 -3.020363
2011-08-17 06:26:28 51°14.173 2°55.374 21.9925 0.019167 0.099943 -3.020363
2011-08-17 06:26:33 51°14.183 2°55.365 21.9968 0.019167 0.099944 -3.020363
2011-08-17 06:26:38 51°14.194 2°55.357 21.991 0.019167 0.099944 -3.020363
2011-08-17 06:26:42 51°14.202 2°55.35 21.9858 0.019167 0.099946 -3.020363
2011-08-17 06:26:48 51°14.214 2°55.339 21.986 0.019167 0.099947 -3.020363
2011-08-17 06:26:53 51°14.225 2°55.33 21.9975 0.019167 0.099947 -3.020363
2011-08-17 06:26:58 51°14.235 2°55.321 22.001 0.019167 0.099947 -3.020363
2011-08-17 06:27:03 51°14.246 2°55.312 21.9984 0.019167 0.099947 -3.020363
2011-08-17 06:27:08 51°14.257 2°55.303 21.9879 0.019167 0.099947 -3.020363
2011-08-17 06:27:13 51°14.267 2°55.294 22.0024 0.019167 0.099949 -3.020363
2011-08-17 06:27:18 51°14.278 2°55.284 22.0102 0.019167 0.09995 -3.020363
2011-08-17 06:27:23 51°14.289 2°55.274 21.9763 0.019167 0.09995 -3.020363
2011-08-17 06:27:28 51°14.299 2°55.264 21.9807 0.019167 0.09995 -3.020363
2011-08-17 06:27:33 51°14.31 2°55.254 21.9728 0.019167 0.099951 -3.020363
2011-08-17 06:27:38 51°14.321 2°55.243 21.9901 0.019167 0.099951 -3.020363
2011-08-17 06:27:43 51°14.331 2°55.233 21.9749 0.019167 0.099951 -3.020363
2011-08-17 06:27:48 51°14.342 2°55.222 22.001 0.019167 0.099953 -3.020363
2011-08-17 06:27:53 51°14.352 2°55.212 21.9953 0.019167 0.099953 -3.020363
2011-08-17 06:27:58 51°14.363 2°55.202 21.9776 0.019167 0.099954 -3.020363
2011-08-17 06:28:03 51°14.374 2°55.191 21.9688 0.019167 0.099954 -3.020363
2011-08-17 06:28:08 51°14.385 2°55.181 22.0034 0.019167 0.099954 -3.020363
2011-08-17 06:28:13 51°14.395 2°55.17 21.9942 0.019167 0.099956 -3.020363
2011-08-17 06:28:18 51°14.406 2°55.16 22.0056 0.019167 0.099956 -3.020363
2011-08-17 06:28:23 51°14.416 2°55.149 22.0062 0.019167 0.099956 -3.020363
2011-08-17 06:28:28 51°14.427 2°55.138 21.9995 0.019167 0.099957 -3.020363
2011-08-17 06:28:33 51°14.438 2°55.127 21.989 0.019167 0.099957 -3.020363
2011-08-17 06:28:38 51°14.448 2°55.116 21.9806 0.019167 0.099957 -3.020363
2011-08-17 06:28:43 51°14.459 2°55.106 21.9831 0.019167 0.099957 -3.020363
2011-08-17 06:28:48 51°14.47 2°55.095 21.9896 0.019167 0.099957 -3.020363
2011-08-17 06:28:52 51°14.478 2°55.086 22.0013 0.019167 0.099959 -3.020363
2011-08-17 06:28:57 51°14.489 2°55.075 21.9711 0.019167 0.099959 -3.020363
2011-08-17 06:29:02 51°14.5 2°55.065 22.0005 0.019167 0.099959 -3.020363
2011-08-17 06:29:07 51°14.511 2°55.054 21.9941 0.019167 0.099959 -3.020363
2011-08-17 06:29:12 51°14.523 2°55.043 21.9843 0.019167 0.09996 -3.020363
2011-08-17 06:29:17 51°14.534 2°55.031 21.9834 0.019167 0.09996 -3.020363
2011-08-17 06:29:22 51°14.544 2°55.019 21.9892 0.019167 0.099962 -3.020363
2011-08-17 06:29:26 51°14.553 2°55.009 22.0108 0.019167 0.099962 -3.020363
2011-08-17 06:29:31 51°14.563 2°54.995 21.9938 0.019167 0.099963 -3.020363
2011-08-17 06:29:36 51°14.573 2°54.98 21.948 0.019167 0.099963 -3.020363
2011-08-17 06:29:41 51°14.584 2°54.965 21.9438 0.019167 0.099963 -3.020363
2011-08-17 06:29:46 51°14.595 2°54.95 21.9518 0.019167 0.099965 -3.020363
2011-08-17 06:29:50 51°14.604 2°54.938 21.9787 0.019167 0.099965 -3.020363
2011-08-17 06:29:55 51°14.615 2°54.923 21.9271 0.019167 0.099963 -3.020363
2011-08-17 06:30:00 51°14.627 2°54.907 21.9706 0.019167 0.099965 -3.020363
2011-08-17 06:30:05 51°14.638 2°54.892 21.9561 0.019167 0.099965 -3.020363
2011-08-17 06:30:10 51°14.651 2°54.876 21.9658 0.019167 0.099966 -3.020363
2011-08-17 06:30:15 51°14.663 2°54.861 21.9547 0.019167 0.099966 -3.020363
2011-08-17 06:30:20 51°14.676 2°54.846 21.9778 0.019167 0.099967 -3.020363
2011-08-17 06:30:25 51°14.688 2°54.83 21.9678 0.019167 0.099967 -3.020363
2011-08-17 06:30:30 51°14.701 2°54.815 21.9783 0.019167 0.099967 -3.020363
2011-08-17 06:30:34 51°14.712 2°54.802 21.9273 0.019167 0.099967 -3.020363
2011-08-17 06:30:40 51°14.727 2°54.782 21.9655 0.019167 0.099967 -3.020363
2011-08-17 06:30:45 51°14.739 2°54.766 21.9629 0.019167 0.099969 -3.020363
2011-08-17 06:30:50 51°14.752 2°54.75 21.9334 0.019167 0.09997 -3.020363
2011-08-17 06:30:54 51°14.762 2°54.737 21.9415 0.019167 0.09997 -3.020363
2011-08-17 06:30:59 51°14.775 2°54.721 21.9561 0.019167 0.099972 -3.020363
2011-08-17 06:31:05 51°14.791 2°54.702 21.9397 0.019167 0.099972 -3.020363
2011-08-17 06:31:10 51°14.804 2°54.687 21.9689 0.019167 0.099972 -3.020363
2011-08-17 06:31:14 51°14.814 2°54.674 21.9673 0.019167 0.099973 -3.020363
2011-08-17 06:31:20 51°14.83 2°54.655 21.974 0.019167 0.099972 -3.020363
2011-08-17 06:31:25 51°14.843 2°54.639 21.9148 0.019167 0.099975 -3.020363
2011-08-17 06:31:30 51°14.856 2°54.622 21.9658 0.019167 0.099975 -3.020363
2011-08-17 06:31:34 51°14.866 2°54.609 21.9406 0.019167 0.099975 -3.020363
2011-08-17 06:31:40 51°14.881 2°54.589 21.9302 0.019167 0.099975 -3.020363
2011-08-17 06:31:45 51°14.894 2°54.572 21.9226 0.019167 0.099976 -3.020363
2011-08-17 06:31:50 51°14.907 2°54.556 21.9276 0.019167 0.099978 -3.020363
2011-08-17 06:31:54 51°14.917 2°54.543 21.9013 0.019167 0.099978 -3.020363
2011-08-17 06:31:59 51°14.93 2°54.528 21.9359 0.019167 0.099978 -3.020363
2011-08-17 06:32:05 51°14.947 2°54.511 21.9262 0.019167 0.099978 -3.020363
2011-08-17 06:32:10 51°14.961 2°54.497 21.9144 0.019167 0.099978 -3.020363
2011-08-17 06:32:15 51°14.975 2°54.485 21.9027 0.019167 0.099979 -3.020363
2011-08-17 06:32:20 51°14.99 2°54.473 21.9399 0.019167 0.099981 -3.020363
2011-08-17 06:32:25 51°15.004 2°54.462 21.9366 0.019167 0.099981 -3.020363
2011-08-17 06:32:30 51°15.019 2°54.452 21.9404 0.019167 0.099981 -3.020363
2011-08-17 06:32:34 51°15.031 2°54.445 21.9085 0.019167 0.099981 -3.020363
2011-08-17 06:32:40 51°15.05 2°54.436 21.911 0.019167 0.099982 -3.020363
2011-08-17 06:32:45 51°15.065 2°54.429 21.93 0.019269 0.100502 -3.020363
2011-08-17 06:32:50 51°15.081 2°54.423 21.9434 0.019167 0.099985 -3.020363
2011-08-17 06:32:54 51°15.094 2°54.418 21.9066 0.019269 0.100505 -3.020363
2011-08-17 06:33:00 51°15.112 2°54.412 21.9189 0.019269 0.100506 -3.020363
2011-08-17 06:33:05 51°15.128 2°54.408 21.9438 0.019269 0.100506 -3.020363
2011-08-17 06:33:10 51°15.144 2°54.404 21.9454 0.019269 0.100506 -3.020363
2011-08-17 06:33:14 51°15.156 2°54.402 21.9425 0.019269 0.100508 -3.020363
2011-08-17 06:33:20 51°15.175 2°54.399 21.9536 0.019269 0.100508 -3.020363
2011-08-17 06:33:25 51°15.191 2°54.396 21.9301 0.019269 0.100509 -3.020363
2011-08-17 06:33:30 51°15.206 2°54.392 21.9531 0.019269 0.100509 -3.020363
2011-08-17 06:33:34 51°15.219 2°54.389 21.9488 0.019269 0.100509 -3.020363
2011-08-17 06:33:40 51°15.237 2°54.383 21.9387 0.019269 0.100512 -3.020363
2011-08-17 06:33:45 51°15.253 2°54.378 21.9519 0.019269 0.100512 -3.020363
2011-08-17 06:33:50 51°15.268 2°54.371 21.9153 0.019269 0.100514 -3.020363
2011-08-17 06:33:54 51°15.28 2°54.366 21.8626 0.019269 0.100515 -3.020363
2011-08-17 06:33:59 51°15.296 2°54.361 21.9082 0.019269 0.100515 -3.020363
2011-08-17 06:34:05 51°15.314 2°54.358 21.8846 0.019269 0.100515 -3.020363
2011-08-17 06:34:10 51°15.33 2°54.357 21.9217 0.019269 0.100517 -3.020363
2011-08-17 06:34:15 51°15.346 2°54.357 21.9458 0.019269 0.100518 -3.020363
2011-08-17 06:34:19 51°15.359 2°54.357 21.9261 0.019269 0.100518 -3.020363
2011-08-17 06:34:25 51°15.378 2°54.357 21.9539 0.019269 0.10052 -3.020363
2011-08-17 06:34:30 51°15.393 2°54.357 21.9014 0.019269 0.100521 -3.020363
2011-08-17 06:34:34 51°15.406 2°54.356 21.9538 0.019269 0.100521 -3.020363
2011-08-17 06:34:39 51°15.421 2°54.354 21.8989 0.019269 0.100523 -3.020363
2011-08-17 06:34:45 51°15.44 2°54.351 21.9307 0.019269 0.100523 -3.020363
2011-08-17 06:34:50 51°15.456 2°54.347 21.902 0.019269 0.100524 -3.020363
2011-08-17 06:34:55 51°15.472 2°54.343 21.8947 0.019269 0.100525 -3.020363
2011-08-17 06:35:00 51°15.487 2°54.34 21.89 0.019269 0.100527 -3.020363
2011-08-17 06:35:05 51°15.503 2°54.337 21.9155 0.019269 0.100527 -3.020363
2011-08-17 06:35:10 51°15.519 2°54.336 21.9148 0.019269 0.100527 -3.020363
2011-08-17 06:35:14 51°15.532 2°54.335 21.9151 0.019269 0.100528 -3.020363
2011-08-17 06:35:20 51°15.55 2°54.335 21.9045 0.019269 0.10053 -3.020363
2011-08-17 06:35:25 51°15.566 2°54.335 21.9204 0.019269 0.10053 -3.020363
2011-08-17 06:35:30 51°15.582 2°54.335 21.9529 0.019269 0.100531 -3.020363
2011-08-17 06:35:34 51°15.594 2°54.335 21.9047 0.019269 0.100531 -3.020363
2011-08-17 06:35:40 51°15.613 2°54.332 21.9388 0.019269 0.100533 -3.020363
2011-08-17 06:35:45 51°15.629 2°54.329 21.895 0.019269 0.100534 -3.020363
2011-08-17 06:35:50 51°15.644 2°54.325 21.9296 0.019269 0.100534 -3.020363
2011-08-17 06:35:54 51°15.657 2°54.323 21.9267 0.019269 0.100536 -3.020363
2011-08-17 06:36:00 51°15.675 2°54.319 21.9142 0.019269 0.100537 -3.020363
2011-08-17 06:36:05 51°15.691 2°54.316 21.8983 0.019269 0.100537 -3.020363
2011-08-17 06:36:10 51°15.706 2°54.313 21.9252 0.019269 0.100537 -3.020363
2011-08-17 06:36:14 51°15.719 2°54.311 21.9288 0.019269 0.100539 -3.020363
2011-08-17 06:36:20 51°15.738 2°54.309 21.8883 0.019269 0.100539 -3.020363
2011-08-17 06:36:25 51°15.753 2°54.307 21.9253 0.019269 0.10054 -3.020363
2011-08-17 06:36:30 51°15.769 2°54.306 21.8845 0.019269 0.100542 -3.020363
2011-08-17 06:36:34 51°15.782 2°54.305 21.9254 0.019269 0.100542 -3.020363
2011-08-17 06:36:40 51°15.801 2°54.304 21.8968 0.019269 0.100543 -3.020363
2011-08-17 06:36:45 51°15.816 2°54.303 21.8934 0.019269 0.100543 -3.020363
2011-08-17 06:36:50 51°15.832 2°54.304 21.9195 0.019269 0.100544 -3.020363
2011-08-17 06:36:54 51°15.845 2°54.303 21.9482 0.019269 0.100544 -3.020363
2011-08-17 06:37:00 51°15.863 2°54.304 21.9231 0.019269 0.100546 -3.020363
2011-08-17 06:37:05 51°15.879 2°54.304 21.9374 0.019269 0.100546 -3.020363
2011-08-17 06:37:10 51°15.894 2°54.301 21.904 0.019269 0.100547 -3.020363
2011-08-17 06:37:14 51°15.907 2°54.299 21.9037 0.019269 0.100549 -3.020363
2011-08-17 06:37:20 51°15.926 2°54.295 21.9146 0.019269 0.10055 -3.020363
2011-08-17 06:37:25 51°15.942 2°54.293 21.913 0.019269 0.10055 -3.020363
2011-08-17 06:37:30 51°15.957 2°54.291 21.881 0.019269 0.100552 -3.020363
2011-08-17 06:37:34 51°15.97 2°54.291 21.8887 0.019269 0.100552 -3.020363
2011-08-17 06:37:40 51°15.989 2°54.291 21.8792 0.019269 0.100552 -3.020363
2011-08-17 06:37:45 51°16.003 2°54.293 21.8996 0.019269 0.100553 -3.020363
2011-08-17 06:37:50 51°16.016 2°54.296 21.9095 0.019269 0.100555 -3.020363
2011-08-17 06:37:54 51°16.025 2°54.299 21.8998 0.019269 0.100556 -3.020363
2011-08-17 06:38:00 51°16.038 2°54.304 21.9092 0.019269 0.100556 -3.020363
2011-08-17 06:38:05 51°16.049 2°54.309 21.9239 0.019269 0.100556 -3.020363
2011-08-17 06:38:10 51°16.058 2°54.314 21.9198 0.019269 0.100558 -3.020363
2011-08-17 06:38:14 51°16.065 2°54.317 21.9417 0.019269 0.100558 -3.020363
2011-08-17 06:38:19 51°16.074 2°54.322 21.9238 0.019269 0.100559 -3.020363
2011-08-17 06:38:25 51°16.084 2°54.326 21.9455 0.019269 0.100561 -3.020363
2011-08-17 06:38:30 51°16.092 2°54.329 21.9338 0.019269 0.100562 -3.020363
2011-08-17 06:38:34 51°16.099 2°54.33 21.9348 0.019269 0.100562 -3.020363
2011-08-17 06:38:40 51°16.108 2°54.331 21.9403 0.019269 0.100564 -3.020363
2011-08-17 06:38:45 51°16.116 2°54.332 21.9302 0.019269 0.100564 -3.020363
2011-08-17 06:38:50 51°16.123 2°54.331 21.9435 0.019269 0.100565 -3.020363
2011-08-17 06:38:54 51°16.129 2°54.33 21.9441 0.019269 0.100566 -3.020363
2011-08-17 06:39:00 51°16.137 2°54.328 21.9296 0.019269 0.100568 -3.020363
2011-08-17 06:39:05 51°16.144 2°54.326 21.947 0.019269 0.100568 -3.020363
2011-08-17 06:39:10 51°16.15 2°54.323 21.9027 0.019269 0.100568 -3.020363
2011-08-17 06:39:14 51°16.155 2°54.321 21.9172 0.019269 0.100569 -3.020363
2011-08-17 06:39:20 51°16.162 2°54.319 21.9342 0.019269 0.100571 -3.020363
2011-08-17 06:39:25 51°16.168 2°54.316 21.9417 0.019269 0.100571 -3.020363
2011-08-17 06:39:30 51°16.173 2°54.313 21.9269 0.019269 0.100572 -3.020363
2011-08-17 06:39:35 51°16.178 2°54.311 21.9398 0.019269 0.100572 -3.020363
2011-08-17 06:39:40 51°16.183 2°54.308 21.9438 0.019269 0.100574 -3.020363
2011-08-17 06:39:45 51°16.188 2°54.306 21.9384 0.019269 0.100574 -3.020363
2011-08-17 06:39:50 51°16.193 2°54.304 21.9257 0.019269 0.100575 -3.020363
2011-08-17 06:39:54 51°16.196 2°54.302 21.9214 0.019269 0.100575 -3.020363
2011-08-17 06:40:00 51°16.201 2°54.3 21.9443 0.019269 0.100577 -3.020363
2011-08-17 06:40:05 51°16.206 2°54.298 21.9223 0.019269 0.100577 -3.020363
2011-08-17 06:40:10 51°16.209 2°54.297 21.9214 0.019269 0.100578 -3.020363
2011-08-17 06:40:14 51°16.212 2°54.296 21.931 0.019269 0.100578 -3.020363
2011-08-17 06:40:19 51°16.216 2°54.295 21.9368 0.019269 0.10058 -3.020363
2011-08-17 06:40:25 51°16.22 2°54.293 21.9288 0.019269 0.10058 -3.020363
2011-08-17 06:40:30 51°16.224 2°54.292 21.9444 0.019269 0.100581 -3.020363
2011-08-17 06:40:34 51°16.226 2°54.291 21.9392 0.019269 0.100581 -3.020363
2011-08-17 06:40:40 51°16.23 2°54.29 21.9093 0.019269 0.100583 -3.020363
2011-08-17 06:40:45 51°16.233 2°54.288 21.9341 0.019269 0.100584 -3.020363
2011-08-17 06:40:50 51°16.236 2°54.287 21.9344 0.019269 0.100584 -3.020363
2011-08-17 06:40:54 51°16.238 2°54.286 21.9237 0.019269 0.100586 -3.020363
2011-08-17 06:41:00 51°16.24 2°54.284 21.9478 0.019269 0.100586 -3.020363
2011-08-17 06:41:05 51°16.242 2°54.283 21.9328 0.019269 0.100586 -3.020363
2011-08-17 06:41:10 51°16.243 2°54.282 21.9218 0.019269 0.100587 -3.020363
2011-08-17 06:41:14 51°16.244 2°54.282 21.9268 0.019269 0.100588 -3.020363
2011-08-17 06:41:20 51°16.246 2°54.281 21.9332 0.019269 0.100588 -3.020363
2011-08-17 06:41:25 51°16.247 2°54.28 21.9445 0.019269 0.10059 -3.020363
2011-08-17 06:41:30 51°16.248 2°54.279 21.9397 0.019269 0.100591 -3.020363
2011-08-17 06:41:35 51°16.249 2°54.279 21.9292 0.019269 0.100591 -3.020363
2011-08-17 06:41:40 51°16.251 2°54.278 21.9363 0.019269 0.100593 -3.020363
2011-08-17 06:41:45 51°16.252 2°54.278 21.9279 0.019269 0.100593 -3.020363
2011-08-17 06:41:50 51°16.253 2°54.277 21.941 0.019372 0.101115 -3.020363
2011-08-17 06:41:54 51°16.254 2°54.277 21.9349 0.019372 0.101117 -3.020363
2011-08-17 06:42:00 51°16.255 2°54.278 21.949 0.019372 0.101118 -3.020363
2011-08-17 06:42:05 51°16.256 2°54.277 21.9476 0.019372 0.101118 -3.020363
2011-08-17 06:42:10 51°16.257 2°54.276 21.9513 0.019372 0.101118 -3.020363
2011-08-17 06:42:14 51°16.258 2°54.275 21.9363 0.019372 0.10112 -3.020363
2011-08-17 06:42:20 51°16.259 2°54.274 21.9413 0.019372 0.10112 -3.020363
2011-08-17 06:42:25 51°16.26 2°54.273 21.9425 0.019372 0.101121 -3.020363
2011-08-17 06:42:30 51°16.261 2°54.272 21.9493 0.019372 0.101123 -3.020363
2011-08-17 06:42:34 51°16.261 2°54.272 21.9462 0.019372 0.101123 -3.020363
2011-08-17 06:42:40 51°16.263 2°54.271 21.9433 0.019372 0.101124 -3.020363
2011-08-17 06:42:45 51°16.263 2°54.27 21.9503 0.019372 0.101125 -3.020363
2011-08-17 06:42:50 51°16.264 2°54.269 21.9495 0.019372 0.101125 -3.020363
2011-08-17 06:42:54 51°16.265 2°54.268 21.9413 0.019372 0.101127 -3.020363
2011-08-17 06:43:00 51°16.266 2°54.267 21.9479 0.019372 0.101127 -3.020363
2011-08-17 06:43:05 51°16.267 2°54.266 21.9617 0.019372 0.101127 -3.020363
2011-08-17 06:43:10 51°16.268 2°54.265 21.964 0.019372 0.101128 -3.020363
2011-08-17 06:43:14 51°16.268 2°54.264 21.9588 0.019372 0.10113 -3.020363
2011-08-17 06:43:20 51°16.269 2°54.263 21.9496 0.019372 0.10113 -3.020363
2011-08-17 06:43:25 51°16.27 2°54.262 21.9509 0.019372 0.101131 -3.020363
2011-08-17 06:43:30 51°16.271 2°54.261 21.9456 0.019372 0.101133 -3.020363
2011-08-17 06:43:35 51°16.272 2°54.26 21.9578 0.019372 0.101133 -3.020363
2011-08-17 06:43:40 51°16.272 2°54.259 21.9604 0.019372 0.101133 -3.020363
2011-08-17 06:43:45 51°16.273 2°54.258 21.9664 0.019372 0.101134 -3.020363
2011-08-17 06:43:50 51°16.274 2°54.257 21.9613 0.019372 0.101136 -3.020363
2011-08-17 06:43:54 51°16.274 2°54.256 21.9597 0.019372 0.101136 -3.020363
2011-08-17 06:44:00 51°16.275 2°54.254 21.9566 0.019372 0.101137 -3.020363
2011-08-17 06:44:05 51°16.276 2°54.253 21.9491 0.019372 0.101137 -3.020363
2011-08-17 06:44:10 51°16.276 2°54.252 21.9684 0.019372 0.101137 -3.020363
2011-08-17 06:44:14 51°16.277 2°54.251 21.9629 0.019372 0.101139 -3.020363
2011-08-17 06:44:20 51°16.277 2°54.25 21.9603 0.019372 0.101139 -3.020363
2011-08-17 06:44:25 51°16.278 2°54.249 21.954 0.019372 0.10114 -3.020363
2011-08-17 06:44:30 51°16.278 2°54.247 21.975 0.019372 0.101142 -3.020363
2011-08-17 06:44:34 51°16.279 2°54.246 21.9485 0.019372 0.101142 -3.020363
2011-08-17 06:44:40 51°16.279 2°54.244 21.9601 0.019372 0.101142 -3.020363
2011-08-17 06:44:45 51°16.28 2°54.243 21.9689 0.019372 0.101142 -3.020363
2011-08-17 06:44:50 51°16.28 2°54.241 21.9787 0.019372 0.101143 -3.020363
2011-08-17 06:44:54 51°16.281 2°54.24 21.975 0.019372 0.101143 -3.020363
2011-08-17 06:44:59 51°16.281 2°54.239 21.9648 0.019372 0.101145 -3.020363
2011-08-17 06:45:05 51°16.282 2°54.238 21.9754 0.019372 0.101145 -3.020363
2011-08-17 06:45:10 51°16.282 2°54.236 21.9751 0.019372 0.101145 -3.020363
2011-08-17 06:45:14 51°16.283 2°54.235 21.9677 0.019372 0.101146 -3.020363
2011-08-17 06:45:20 51°16.283 2°54.233 21.975 0.019372 0.101146 -3.020363
2011-08-17 06:45:25 51°16.284 2°54.232 21.9748 0.019372 0.101146 -3.020363
2011-08-17 06:45:30 51°16.284 2°54.231 21.9658 0.019372 0.101148 -3.020363
2011-08-17 06:45:34 51°16.284 2°54.23 21.9767 0.019372 0.101148 -3.020363
2011-08-17 06:45:40 51°16.285 2°54.228 21.9804 0.019372 0.101148 -3.020363
2011-08-17 06:45:45 51°16.286 2°54.227 21.9584 0.019372 0.101148 -3.020363
2011-08-17 06:45:50 51°16.286 2°54.225 21.9707 0.019372 0.101149 -3.020363
2011-08-17 06:45:54 51°16.286 2°54.224 21.9675 0.019372 0.101151 -3.020363
2011-08-17 06:46:00 51°16.287 2°54.222 21.9778 0.019372 0.101151 -3.020363
2011-08-17 06:46:05 51°16.287 2°54.221 21.986 0.019372 0.101151 -3.020363
2011-08-17 06:46:10 51°16.287 2°54.219 21.9878 0.019372 0.101151 -3.020363
2011-08-17 06:46:15 51°16.288 2°54.218 21.9845 0.019372 0.101152 -3.020363
2011-08-17 06:46:20 51°16.288 2°54.216 21.9888 0.019372 0.101152 -3.020363
2011-08-17 06:46:25 51°16.288 2°54.215 21.979 0.019372 0.101152 -3.020363
2011-08-17 06:46:30 51°16.289 2°54.213 21.9854 0.019372 0.101154 -3.020363
2011-08-17 06:46:34 51°16.289 2°54.212 21.9854 0.019372 0.101154 -3.020363
2011-08-17 06:46:40 51°16.289 2°54.21 21.9834 0.019372 0.101154 -3.020363
2011-08-17 06:46:45 51°16.289 2°54.209 21.9798 0.019372 0.101154 -3.020363
2011-08-17 06:46:50 51°16.29 2°54.207 21.9778 0.019372 0.101154 -3.020363
2011-08-17 06:46:54 51°16.29 2°54.206 21.9794 0.019372 0.101154 -3.020363
2011-08-17 06:47:00 51°16.29 2°54.204 21.9948 0.019372 0.101155 -3.020363
2011-08-17 06:47:05 51°16.291 2°54.202 21.998 0.019372 0.101155 -3.020363
2011-08-17 06:47:10 51°16.291 2°54.201 21.9867 0.019372 0.101155 -3.020363
2011-08-17 06:47:14 51°16.291 2°54.2 21.9933 0.019372 0.101155 -3.020363
2011-08-17 06:47:20 51°16.291 2°54.198 21.9851 0.019372 0.101155 -3.020363
2011-08-17 06:47:25 51°16.292 2°54.196 21.9868 0.019372 0.101155 -3.020363
2011-08-17 06:47:30 51°16.292 2°54.195 21.9872 0.019372 0.101157 -3.020363
2011-08-17 06:47:34 51°16.292 2°54.194 22.0028 0.019372 0.101157 -3.020363
2011-08-17 06:47:40 51°16.292 2°54.191 21.9753 0.019372 0.101157 -3.020363
2011-08-17 06:47:45 51°16.292 2°54.19 21.9844 0.019372 0.101157 -3.020363
2011-08-17 06:47:50 51°16.293 2°54.188 22.005 0.019372 0.101157 -3.020363
2011-08-17 06:47:55 51°16.293 2°54.186 22.0035 0.019372 0.101157 -3.020363
2011-08-17 06:48:00 51°16.293 2°54.185 21.9982 0.019372 0.101157 -3.020363
2011-08-17 06:48:05 51°16.293 2°54.183 22.0003 0.019372 0.101157 -3.020363
2011-08-17 06:48:10 51°16.293 2°54.182 21.9942 0.019372 0.101158 -3.020363
2011-08-17 06:48:14 51°16.293 2°54.18 21.9845 0.019372 0.101158 -3.020363
2011-08-17 06:48:20 51°16.293 2°54.179 21.9854 0.019372 0.101158 -3.020363
2011-08-17 06:48:25 51°16.294 2°54.177 21.993 0.019372 0.101159 -3.020363
2011-08-17 06:48:30 51°16.294 2°54.175 22.0035 0.019372 0.101158 -3.020363
2011-08-17 06:48:34 51°16.294 2°54.174 22.008 0.019372 0.101158 -3.020363
2011-08-17 06:48:40 51°16.294 2°54.172 22.01 0.019372 0.101159 -3.020363
2011-08-17 06:48:45 51°16.295 2°54.17 22.0087 0.019372 0.101159 -3.020363
2011-08-17 06:48:50 51°16.297 2°54.168 22.0105 0.019372 0.101159 -3.020363
2011-08-17 06:48:54 51°16.299 2°54.166 21.9815 0.019372 0.101159 -3.020363
2011-08-17 06:49:00 51°16.301 2°54.164 22.0104 0.019372 0.101161 -3.020363
2011-08-17 06:49:05 51°16.304 2°54.162 22.0041 0.019372 0.101161 -3.020363
2011-08-17 06:49:10 51°16.307 2°54.161 21.9917 0.019372 0.101161 -3.020363
2011-08-17 06:49:14 51°16.31 2°54.16 22.0056 0.019372 0.101161 -3.020363
2011-08-17 06:49:20 51°16.314 2°54.16 21.9897 0.019372 0.101161 -3.020363
2011-08-17 06:49:25 51°16.317 2°54.16 21.9944 0.019372 0.101162 -3.020363
2011-08-17 06:49:30 51°16.321 2°54.161 21.9864 0.019372 0.101162 -3.020363
2011-08-17 06:49:34 51°16.323 2°54.163 21.9937 0.019372 0.101162 -3.020363
2011-08-17 06:49:39 51°16.326 2°54.165 21.9856 0.019372 0.101162 -3.020363
2011-08-17 06:49:45 51°16.33 2°54.169 22.0109 0.019372 0.101162 -3.020363
2011-08-17 06:49:50 51°16.332 2°54.173 21.9996 0.019372 0.101162 -3.020363
2011-08-17 06:49:55 51°16.334 2°54.177 21.9994 0.019372 0.101164 -3.020363
2011-08-17 06:50:00 51°16.336 2°54.182 22.0014 0.019372 0.101164 -3.020363
2011-08-17 06:50:05 51°16.338 2°54.188 22.0055 0.019372 0.101164 -3.020363
2011-08-17 06:50:10 51°16.339 2°54.193 22.0046 0.019372 0.101164 -3.020363
2011-08-17 06:50:14 51°16.339 2°54.198 22.0035 0.019372 0.101165 -3.020363
2011-08-17 06:50:20 51°16.339 2°54.205 22.0037 0.019372 0.101165 -3.020363
2011-08-17 06:50:25 51°16.338 2°54.211 21.999 0.019372 0.101167 -3.020363
2011-08-17 06:50:30 51°16.336 2°54.216 22.0038 0.019372 0.101167 -3.020363
2011-08-17 06:50:35 51°16.335 2°54.222 22.0083 0.019372 0.101167 -3.020363
2011-08-17 06:50:40 51°16.332 2°54.227 22.0014 0.019372 0.101167 -3.020363
2011-08-17 06:50:45 51°16.329 2°54.232 22.0114 0.019372 0.101168 -3.020363
2011-08-17 06:50:50 51°16.326 2°54.236 22.0097 0.019372 0.101168 -3.020363
2011-08-17 06:50:54 51°16.322 2°54.24 22.0109 0.019372 0.10117 -3.020363
2011-08-17 06:51:00 51°16.317 2°54.244 22.0172 0.019372 0.10117 -3.020363
2011-08-17 06:51:05 51°16.312 2°54.247 22.0182 0.019372 0.10117 -3.020363
2011-08-17 06:51:10 51°16.307 2°54.249 22.0247 0.019372 0.101171 -3.020363
2011-08-17 06:51:14 51°16.304 2°54.251 22.0212 0.019372 0.101171 -3.020363
2011-08-17 06:51:20 51°16.298 2°54.253 22.0313 0.019372 0.101173 -3.020363
2011-08-17 06:51:25 51°16.293 2°54.254 22.0411 0.019372 0.101173 -3.020363
2011-08-17 06:51:30 51°16.289 2°54.255 22.0291 0.019372 0.101174 -3.020363
2011-08-17 06:51:34 51°16.286 2°54.256 22.0414 0.019372 0.101174 -3.020363
2011-08-17 06:51:39 51°16.282 2°54.257 22.0402 0.019372 0.101176 -3.020363
2011-08-17 06:51:45 51°16.277 2°54.258 22.0356 0.019372 0.101176 -3.020363
2011-08-17 06:51:50 51°16.273 2°54.259 22.0399 0.019475 0.101697 -3.020363
2011-08-17 06:51:54 51°16.271 2°54.26 22.0358 0.019372 0.101177 -3.020363
2011-08-17 06:52:00 51°16.266 2°54.261 22.0449 0.019475 0.101699 -3.020363
2011-08-17 06:52:05 51°16.263 2°54.262 22.0496 0.019475 0.101699 -3.020363
2011-08-17 06:52:10 51°16.26 2°54.263 22.0264 0.019475 0.1017 -3.020363
2011-08-17 06:52:14 51°16.258 2°54.263 22.033 0.019475 0.101702 -3.020363
2011-08-17 06:52:20 51°16.255 2°54.264 22.048 0.019475 0.101702 -3.020363
2011-08-17 06:52:25 51°16.252 2°54.264 22.0473 0.019475 0.101703 -3.020363
2011-08-17 06:52:30 51°16.251 2°54.263 22.0499 0.019475 0.101703 -3.020363
2011-08-17 06:52:34 51°16.25 2°54.263 22.0471 0.019475 0.101703 -3.020363
2011-08-17 06:52:40 51°16.248 2°54.262 22.033 0.019475 0.101705 -3.020363
2011-08-17 06:52:45 51°16.247 2°54.261 22.0547 0.019475 0.101705 -3.020363
2011-08-17 06:52:50 51°16.246 2°54.261 22.0478 0.019475 0.101706 -3.020363
2011-08-17 06:52:55 51°16.245 2°54.26 22.0349 0.019475 0.101706 -3.020363
2011-08-17 06:53:00 51°16.243 2°54.259 21.9536 0.019475 0.101708 -3.020363
2011-08-17 06:53:05 51°16.242 2°54.258 21.9609 0.019475 0.101708 -3.020363
2011-08-17 06:53:10 51°16.241 2°54.258 22.0009 0.019475 0.101708 -3.020363
2011-08-17 06:53:14 51°16.24 2°54.257 22.0002 0.019475 0.101709 -3.020363
2011-08-17 06:53:20 51°16.239 2°54.256 22.0008 0.019475 0.101709 -3.020363
2011-08-17 06:53:25 51°16.237 2°54.255 22.0028 0.019475 0.10171 -3.020363
2011-08-17 06:53:30 51°16.236 2°54.255 22.0046 0.019475 0.101712 -3.020363
2011-08-17 06:53:34 51°16.236 2°54.254 22.0072 0.019475 0.101712 -3.020363
2011-08-17 06:53:40 51°16.234 2°54.253 22.0081 0.019475 0.101712 -3.020363
2011-08-17 06:53:45 51°16.233 2°54.252 22.0105 0.019475 0.101713 -3.020363
2011-08-17 06:53:50 51°16.232 2°54.252 22.0124 0.019475 0.101715 -3.020363
2011-08-17 06:53:54 51°16.231 2°54.251 22.0143 0.019475 0.101715 -3.020363
2011-08-17 06:54:00 51°16.23 2°54.25 22.0164 0.019475 0.101716 -3.020363
2011-08-17 06:54:05 51°16.229 2°54.249 22.0179 0.019475 0.101716 -3.020363
2011-08-17 06:54:10 51°16.228 2°54.248 22.0208 0.019475 0.101718 -3.020363
2011-08-17 06:54:14 51°16.227 2°54.247 22.0225 0.019475 0.101718 -3.020363
2011-08-17 06:54:20 51°16.226 2°54.246 22.0231 0.019475 0.101718 -3.020363
2011-08-17 06:54:25 51°16.225 2°54.245 22.025 0.019475 0.101719 -3.020363
2011-08-17 06:54:30 51°16.224 2°54.244 22.0274 0.019475 0.101721 -3.020363
2011-08-17 06:54:34 51°16.224 2°54.243 22.0287 0.019475 0.101721 -3.020363
2011-08-17 06:54:40 51°16.223 2°54.242 22.0288 0.019475 0.101721 -3.020363
2011-08-17 06:54:45 51°16.221 2°54.241 22.0298 0.019475 0.101722 -3.020363
2011-08-17 06:54:50 51°16.221 2°54.24 22.0333 0.019475 0.101724 -3.020363
2011-08-17 06:54:55 51°16.22 2°54.239 22.0336 0.019475 0.101724 -3.020363
2011-08-17 06:55:00 51°16.219 2°54.238 22.0339 0.019475 0.101725 -3.020363
2011-08-17 06:55:05 51°16.218 2°54.237 22.037 0.019475 0.101725 -3.020363
2011-08-17 06:55:10 51°16.217 2°54.236 22.0409 0.019475 0.101725 -3.020363
2011-08-17 06:55:15 51°16.216 2°54.235 22.0437 0.019475 0.101725 -3.020363
2011-08-17 06:55:20 51°16.216 2°54.234 22.045 0.019475 0.101728 -3.020363
2011-08-17 06:55:25 51°16.215 2°54.233 22.0463 0.019475 0.101728 -3.020363
2011-08-17 06:55:30 51°16.214 2°54.232 22.0493 0.019475 0.10173 -3.020363
2011-08-17 06:55:34 51°16.213 2°54.231 22.0519 0.019475 0.10173 -3.020363
2011-08-17 06:55:40 51°16.212 2°54.229 22.0515 0.019475 0.10173 -3.020363
2011-08-17 06:55:45 51°16.212 2°54.228 22.0535 0.019475 0.101731 -3.020363
2011-08-17 06:55:50 51°16.211 2°54.227 22.0544 0.019475 0.101731 -3.020363
2011-08-17 06:55:54 51°16.21 2°54.226 22.0567 0.019475 0.101733 -3.020363
2011-08-17 06:56:00 51°16.209 2°54.225 22.0555 0.019475 0.101734 -3.020363
2011-08-17 06:56:05 51°16.208 2°54.224 22.0566 0.019475 0.101734 -3.020363
2011-08-17 06:56:10 51°16.208 2°54.222 22.0611 0.019475 0.101734 -3.020363
2011-08-17 06:56:14 51°16.207 2°54.222 22.0625 0.019475 0.101736 -3.020363
2011-08-17 06:56:20 51°16.206 2°54.22 22.0634 0.019475 0.101736 -3.020363
2011-08-17 06:56:25 51°16.206 2°54.219 22.0684 0.019475 0.101737 -3.020363
2011-08-17 06:56:30 51°16.205 2°54.218 22.0715 0.019475 0.101737 -3.020363
2011-08-17 06:56:34 51°16.204 2°54.217 22.072 0.019475 0.101737 -3.020363
2011-08-17 06:56:40 51°16.203 2°54.215 22.0726 0.019475 0.101739 -3.020363
2011-08-17 06:56:45 51°16.203 2°54.214 22.075 0.019475 0.10174 -3.020363
2011-08-17 06:56:50 51°16.202 2°54.213 22.0763 0.019475 0.10174 -3.020363
2011-08-17 06:56:55 51°16.201 2°54.211 22.0783 0.019475 0.101742 -3.020363
2011-08-17 06:57:00 51°16.2 2°54.21 22.0807 0.019475 0.101742 -3.020363
2011-08-17 06:57:05 51°16.2 2°54.209 22.0816 0.019475 0.101742 -3.020363
2011-08-17 06:57:10 51°16.199 2°54.208 22.0808 0.019475 0.101743 -3.020363
2011-08-17 06:57:14 51°16.199 2°54.207 22.0832 0.019475 0.101743 -3.020363
2011-08-17 06:57:20 51°16.198 2°54.205 22.0836 0.019475 0.101745 -3.020363
2011-08-17 06:57:25 51°16.197 2°54.204 22.0879 0.019475 0.101746 -3.020363
2011-08-17 06:57:30 51°16.196 2°54.203 22.0866 0.019475 0.101746 -3.020363
2011-08-17 06:57:34 51°16.196 2°54.201 22.0884 0.019475 0.101746 -3.020363
2011-08-17 06:57:40 51°16.195 2°54.2 22.092 0.019475 0.101748 -3.020363
2011-08-17 06:57:45 51°16.194 2°54.199 22.095 0.019475 0.101748 -3.020363
2011-08-17 06:57:50 51°16.194 2°54.197 22.0958 0.019475 0.101749 -3.020363
2011-08-17 06:57:55 51°16.193 2°54.196 22.0994 0.019475 0.101749 -3.020363
2011-08-17 06:58:00 51°16.192 2°54.195 22.0999 0.019475 0.101751 -3.020363
2011-08-17 06:58:05 51°16.192 2°54.194 22.1006 0.019475 0.101751 -3.020363
2011-08-17 06:58:10 51°16.191 2°54.192 22.1014 0.019475 0.101752 -3.020363
2011-08-17 06:58:14 51°16.191 2°54.191 22.1027 0.019475 0.101752 -3.020363
2011-08-17 06:58:20 51°16.19 2°54.19 22.1066 0.019475 0.101754 -3.020363
2011-08-17 06:58:25 51°16.189 2°54.188 22.1075 0.019475 0.101754 -3.020363
2011-08-17 06:58:30 51°16.189 2°54.187 22.1079 0.019475 0.101755 -3.020363
2011-08-17 06:58:34 51°16.188 2°54.186 22.1116 0.019475 0.101755 -3.020363
2011-08-17 06:58:39 51°16.188 2°54.185 22.1134 0.019475 0.101755 -3.020363
2011-08-17 06:58:45 51°16.187 2°54.183 22.1173 0.019475 0.101757 -3.020363
2011-08-17 06:58:50 51°16.186 2°54.182 22.1178 0.019475 0.101758 -3.020363
2011-08-17 06:58:55 51°16.186 2°54.18 22.1182 0.019475 0.101758 -3.020363
2011-08-17 06:59:00 51°16.185 2°54.179 22.1205 0.019475 0.10176 -3.020363
2011-08-17 06:59:05 51°16.185 2°54.178 22.1234 0.019475 0.10176 -3.020363
2011-08-17 06:59:10 51°16.184 2°54.176 22.1235 0.019475 0.101758 -3.020363
2011-08-17 06:59:14 51°16.183 2°54.175 22.123 0.019475 0.10176 -3.020363
2011-08-17 06:59:20 51°16.183 2°54.174 22.1232 0.019475 0.101761 -3.020363
2011-08-17 06:59:25 51°16.182 2°54.172 22.1241 0.019475 0.101761 -3.020363
2011-08-17 06:59:30 51°16.182 2°54.171 22.1318 0.019475 0.101763 -3.020363
2011-08-17 06:59:34 51°16.181 2°54.17 22.1356 0.019475 0.101763 -3.020363
2011-08-17 06:59:40 51°16.18 2°54.168 22.1356 0.019475 0.101764 -3.020363
2011-08-17 06:59:45 51°16.18 2°54.167 22.135 0.019475 0.101764 -3.020363
2011-08-17 06:59:50 51°16.179 2°54.165 22.138 0.019475 0.101766 -3.020363
2011-08-17 06:59:55 51°16.179 2°54.164 22.1385 0.019475 0.101766 -3.020363
2011-08-17 07:00:00 51°16.178 2°54.163 22.1436 0.019475 0.101767 -3.020363
2011-08-17 07:00:05 51°16.177 2°54.162 22.144 0.019475 0.101767 -3.020363
2011-08-17 07:00:10 51°16.177 2°54.16 22.1451 0.019475 0.101767 -3.020363
2011-08-17 07:00:14 51°16.176 2°54.159 22.143 0.019475 0.101769 -3.020363
2011-08-17 07:00:20 51°16.176 2°54.157 22.1476 0.019475 0.10177 -3.020363
2011-08-17 07:00:25 51°16.175 2°54.156 22.1506 0.019475 0.10177 -3.020363
2011-08-17 07:00:30 51°16.174 2°54.155 22.1514 0.019475 0.101772 -3.020363
2011-08-17 07:00:34 51°16.174 2°54.154 22.153 0.019475 0.101772 -3.020363
2011-08-17 07:00:39 51°16.173 2°54.152 22.1529 0.019475 0.101772 -3.020363
2011-08-17 07:00:45 51°16.173 2°54.151 22.1523 0.019475 0.101773 -3.020363
2011-08-17 07:00:50 51°16.172 2°54.149 22.1594 0.019475 0.101773 -3.020363
2011-08-17 07:00:54 51°16.172 2°54.148 22.1552 0.019475 0.101775 -3.020363
2011-08-17 07:01:00 51°16.171 2°54.147 22.1564 0.019475 0.101775 -3.020363
2011-08-17 07:01:05 51°16.17 2°54.145 22.1654 0.019475 0.101775 -3.020363
2011-08-17 07:01:10 51°16.17 2°54.144 22.1682 0.019475 0.101776 -3.020363
2011-08-17 07:01:14 51°16.169 2°54.143 22.1667 0.019475 0.101776 -3.020363
2011-08-17 07:01:20 51°16.168 2°54.141 22.1677 0.019475 0.101778 -3.020363
2011-08-17 07:01:25 51°16.168 2°54.14 22.1685 0.019475 0.101778 -3.020363
2011-08-17 07:01:30 51°16.167 2°54.138 22.1682 0.019475 0.101779 -3.020363
2011-08-17 07:01:34 51°16.167 2°54.137 22.1689 0.019475 0.101779 -3.020363
2011-08-17 07:01:40 51°16.166 2°54.135 22.1764 0.019475 0.101779 -3.020363
2011-08-17 07:01:45 51°16.165 2°54.134 22.1793 0.019475 0.101779 -3.020363
2011-08-17 07:01:50 51°16.165 2°54.133 22.1794 0.019475 0.101781 -3.020363
2011-08-17 07:01:55 51°16.164 2°54.132 22.1814 0.019475 0.101782 -3.020363
2011-08-17 07:02:00 51°16.163 2°54.13 22.1833 0.019475 0.101784 -3.020363
2011-08-17 07:02:05 51°16.163 2°54.129 22.1844 0.019475 0.101784 -3.020363
2011-08-17 07:02:10 51°16.162 2°54.127 22.183 0.019475 0.101784 -3.020363
2011-08-17 07:02:14 51°16.162 2°54.126 22.1844 0.019475 0.101785 -3.020363
2011-08-17 07:02:20 51°16.161 2°54.124 22.187 0.019475 0.101785 -3.020363
2011-08-17 07:02:25 51°16.161 2°54.123 22.1893 0.019475 0.101785 -3.020363
2011-08-17 07:02:30 51°16.16 2°54.122 22.1913 0.019475 0.101788 -3.020363
2011-08-17 07:02:34 51°16.159 2°54.121 22.1925 0.019475 0.101788 -3.020363
2011-08-17 07:02:40 51°16.159 2°54.119 22.1945 0.019475 0.101788 -3.020363
2011-08-17 07:02:45 51°16.158 2°54.117 22.1982 0.019475 0.101788 -3.020363
2011-08-17 07:02:50 51°16.158 2°54.116 22.1989 0.019475 0.101788 -3.020363
2011-08-17 07:02:54 51°16.157 2°54.115 22.2 0.019475 0.101791 -3.020363
2011-08-17 07:02:59 51°16.157 2°54.114 22.2058 0.019475 0.101791 -3.020363
2011-08-17 07:03:05 51°16.156 2°54.112 22.2067 0.019475 0.101791 -3.020363
2011-08-17 07:03:10 51°16.155 2°54.111 22.2091 0.019475 0.101791 -3.020363
2011-08-17 07:03:14 51°16.155 2°54.109 22.21 0.019475 0.101791 -3.020363
2011-08-17 07:03:20 51°16.154 2°54.108 22.209 0.019475 0.101794 -3.020363
2011-08-17 07:03:25 51°16.154 2°54.107 22.2097 0.019475 0.101794 -3.020363
2011-08-17 07:03:30 51°16.153 2°54.105 22.2128 0.019475 0.101794 -3.020363
2011-08-17 07:03:34 51°16.153 2°54.104 22.2189 0.019475 0.101794 -3.020363
2011-08-17 07:03:40 51°16.152 2°54.102 22.2222 0.019475 0.101795 -3.020363
2011-08-17 07:03:45 51°16.151 2°54.101 22.2227 0.019475 0.101797 -3.020363
2011-08-17 07:03:50 51°16.151 2°54.099 22.2235 0.019475 0.101797 -3.020363
2011-08-17 07:03:55 51°16.15 2°54.098 22.2258 0.019475 0.101798 -3.020363
2011-08-17 07:04:00 51°16.15 2°54.097 22.2289 0.019475 0.101798 -3.020363
2011-08-17 07:04:05 51°16.149 2°54.095 22.2285 0.019475 0.101798 -3.020363
2011-08-17 07:04:10 51°16.148 2°54.093 22.2319 0.019475 0.1018 -3.020363
2011-08-17 07:04:14 51°16.148 2°54.092 22.2317 0.019475 0.1018 -3.020363
2011-08-17 07:04:20 51°16.147 2°54.09 22.2282 0.019475 0.101801 -3.020363
2011-08-17 07:04:25 51°16.147 2°54.089 22.2336 0.019475 0.101801 -3.020363
2011-08-17 07:04:30 51°16.146 2°54.088 22.2331 0.019475 0.101803 -3.020363
2011-08-17 07:04:34 51°16.146 2°54.087 22.2361 0.019475 0.101803 -3.020363
2011-08-17 07:04:40 51°16.145 2°54.085 22.2423 0.019475 0.101803 -3.020363
2011-08-17 07:04:45 51°16.145 2°54.083 22.2411 0.019475 0.101804 -3.020363
2011-08-17 07:04:50 51°16.144 2°54.082 22.2467 0.019475 0.101806 -3.020363
2011-08-17 07:04:54 51°16.143 2°54.081 22.2463 0.019475 0.101806 -3.020363
2011-08-17 07:05:00 51°16.143 2°54.079 22.2457 0.019475 0.101807 -3.020363
2011-08-17 07:05:05 51°16.143 2°54.078 22.2492 0.019475 0.101807 -3.020363
2011-08-17 07:05:10 51°16.142 2°54.077 22.2502 0.019475 0.101807 -3.020363
2011-08-17 07:05:14 51°16.142 2°54.076 22.2481 0.019475 0.101807 -3.020363
2011-08-17 07:05:20 51°16.141 2°54.074 22.2504 0.019475 0.10181 -3.020363
2011-08-17 07:05:25 51°16.14 2°54.073 22.254 0.019475 0.10181 -3.020363
2011-08-17 07:05:30 51°16.14 2°54.072 22.2595 0.019475 0.101812 -3.020363
2011-08-17 07:05:35 51°16.139 2°54.07 22.262 0.019475 0.101812 -3.020363
2011-08-17 07:05:39 51°16.139 2°54.069 22.2609 0.019475 0.101812 -3.020363
2011-08-17 07:05:45 51°16.138 2°54.067 22.2625 0.019475 0.101813 -3.020363
2011-08-17 07:05:50 51°16.137 2°54.066 22.2636 0.019475 0.101813 -3.020363
2011-08-17 07:05:55 51°16.137 2°54.065 22.2703 0.019475 0.101813 -3.020363
2011-08-17 07:06:00 51°16.136 2°54.064 22.2709 0.019475 0.101815 -3.020363
2011-08-17 07:06:05 51°16.136 2°54.062 22.2711 0.019475 0.101815 -3.020363
2011-08-17 07:06:10 51°16.135 2°54.061 22.2717 0.019475 0.101816 -3.020363
2011-08-17 07:06:14 51°16.135 2°54.06 22.2743 0.019475 0.101818 -3.020363
2011-08-17 07:06:20 51°16.134 2°54.058 22.2723 0.019475 0.101818 -3.020363
2011-08-17 07:06:25 51°16.133 2°54.057 22.28 0.019475 0.101819 -3.020363
2011-08-17 07:06:30 51°16.133 2°54.056 22.2823 0.019475 0.101819 -3.020363
2011-08-17 07:06:34 51°16.132 2°54.054 22.2831 0.019475 0.101819 -3.020363
2011-08-17 07:06:40 51°16.132 2°54.053 22.2833 0.019475 0.101819 -3.020363
2011-08-17 07:06:45 51°16.131 2°54.051 22.2842 0.019475 0.101821 -3.020363
2011-08-17 07:06:50 51°16.131 2°54.05 22.283 0.019475 0.101822 -3.020363
2011-08-17 07:06:54 51°16.13 2°54.049 22.2893 0.019475 0.101822 -3.020363
2011-08-17 07:07:00 51°16.13 2°54.047 22.292 0.019475 0.101822 -3.020363
2011-08-17 07:07:05 51°16.129 2°54.046 22.2951 0.019475 0.101822 -3.020363
2011-08-17 07:07:10 51°16.128 2°54.045 22.2959 0.019475 0.101825 -3.020363
2011-08-17 07:07:14 51°16.128 2°54.043 22.2964 0.019475 0.101825 -3.020363
2011-08-17 07:07:20 51°16.127 2°54.042 22.2987 0.019475 0.101825 -3.020363
2011-08-17 07:07:25 51°16.127 2°54.04 22.3029 0.019475 0.101828 -3.020363
2011-08-17 07:07:30 51°16.126 2°54.039 22.3059 0.019475 0.101828 -3.020363
2011-08-17 07:07:35 51°16.126 2°54.038 22.3044 0.019475 0.101828 -3.020363
2011-08-17 07:07:39 51°16.125 2°54.037 22.3066 0.019475 0.10183 -3.020363
2011-08-17 07:07:45 51°16.125 2°54.035 22.312 0.019475 0.10183 -3.020363
2011-08-17 07:07:50 51°16.124 2°54.034 22.3072 0.019475 0.10183 -3.020363
2011-08-17 07:07:54 51°16.124 2°54.033 22.3118 0.019475 0.101831 -3.020363
2011-08-17 07:08:00 51°16.123 2°54.031 22.3149 0.019475 0.101831 -3.020363
2011-08-17 07:08:05 51°16.123 2°54.03 22.3138 0.019475 0.101831 -3.020363
2011-08-17 07:08:10 51°16.122 2°54.028 22.3167 0.019475 0.101833 -3.020363
2011-08-17 07:08:14 51°16.122 2°54.027 22.3207 0.019475 0.101833 -3.020363
2011-08-17 07:08:20 51°16.121 2°54.026 22.3148 0.019475 0.101834 -3.020363
2011-08-17 07:08:25 51°16.12 2°54.024 22.3251 0.019475 0.101834 -3.020363
2011-08-17 07:08:30 51°16.12 2°54.023 22.3272 0.019475 0.101836 -3.020363
2011-08-17 07:08:34 51°16.119 2°54.022 22.3299 0.019475 0.101836 -3.020363
2011-08-17 07:08:40 51°16.119 2°54.02 22.3261 0.019578 0.102358 -3.020363
2011-08-17 07:08:45 51°16.118 2°54.019 22.322 0.019578 0.102358 -3.020363
2011-08-17 07:08:50 51°16.118 2°54.018 22.325 0.019578 0.10236 -3.020363
2011-08-17 07:08:54 51°16.117 2°54.016 22.3365 0.019578 0.102361 -3.020363
2011-08-17 07:09:00 51°16.117 2°54.015 22.3365 0.019578 0.102361 -3.020363
2011-08-17 07:09:05 51°16.116 2°54.013 22.3407 0.019578 0.102361 -3.020363
2011-08-17 07:09:10 51°16.115 2°54.012 22.3402 0.019578 0.102363 -3.020363
2011-08-17 07:09:14 51°16.115 2°54.011 22.3406 0.019578 0.102363 -3.020363
2011-08-17 07:09:20 51°16.114 2°54.009 22.3369 0.019578 0.102364 -3.020363
2011-08-17 07:09:25 51°16.114 2°54.008 22.3471 0.019578 0.102364 -3.020363
2011-08-17 07:09:30 51°16.113 2°54.006 22.3478 0.019578 0.102366 -3.020363
2011-08-17 07:09:34 51°16.113 2°54.005 22.3475 0.019578 0.102366 -3.020363
2011-08-17 07:09:39 51°16.112 2°54.004 22.3502 0.019578 0.102367 -3.020363
2011-08-17 07:09:45 51°16.112 2°54.002 22.3466 0.019578 0.102367 -3.020363
2011-08-17 07:09:50 51°16.111 2°54.001 22.3547 0.019578 0.102369 -3.020363
2011-08-17 07:09:54 51°16.111 2°54 22.3589 0.019578 0.10237 -3.020363
2011-08-17 07:09:59 51°16.11 2°53.998 22.3594 0.019578 0.102372 -3.020363
2011-08-17 07:10:05 51°16.109 2°53.997 22.3614 0.019578 0.102372 -3.020363
2011-08-17 07:10:10 51°16.109 2°53.995 22.363 0.019578 0.102372 -3.020363
2011-08-17 07:10:14 51°16.108 2°53.994 22.367 0.019578 0.102373 -3.020363
2011-08-17 07:10:20 51°16.107 2°53.993 22.3634 0.019578 0.102373 -3.020363
2011-08-17 07:10:25 51°16.107 2°53.991 22.3688 0.019578 0.102375 -3.020363
2011-08-17 07:10:30 51°16.106 2°53.99 22.3718 0.019578 0.102375 -3.020363
2011-08-17 07:10:35 51°16.106 2°53.988 22.3708 0.019578 0.102375 -3.020363
2011-08-17 07:10:40 51°16.105 2°53.987 22.3761 0.019578 0.102375 -3.020363
2011-08-17 07:10:45 51°16.105 2°53.985 22.3782 0.019578 0.102375 -3.020363
2011-08-17 07:10:50 51°16.104 2°53.984 22.377 0.019578 0.102376 -3.020363
2011-08-17 07:10:54 51°16.104 2°53.983 22.3775 0.019578 0.102376 -3.020363
2011-08-17 07:11:00 51°16.103 2°53.981 22.3808 0.019578 0.102376 -3.020363
2011-08-17 07:11:05 51°16.102 2°53.98 22.379 0.019578 0.102376 -3.020363
2011-08-17 07:11:10 51°16.102 2°53.979 22.3857 0.019578 0.102378 -3.020363
2011-08-17 07:11:14 51°16.101 2°53.978 22.3856 0.019578 0.102379 -3.020363
2011-08-17 07:11:20 51°16.1 2°53.976 22.3758 0.019578 0.102381 -3.020363
2011-08-17 07:11:25 51°16.1 2°53.974 22.3869 0.019578 0.102382 -3.020363
2011-08-17 07:11:30 51°16.099 2°53.973 22.3915 0.019578 0.102382 -3.020363
2011-08-17 07:11:34 51°16.099 2°53.972 22.3921 0.019578 0.102382 -3.020363
2011-08-17 07:11:40 51°16.098 2°53.97 22.3916 0.019578 0.102382 -3.020363
2011-08-17 07:11:45 51°16.097 2°53.969 22.3875 0.019578 0.102382 -3.020363
2011-08-17 07:11:50 51°16.097 2°53.967 22.3919 0.019578 0.102384 -3.020363
2011-08-17 07:11:54 51°16.096 2°53.966 22.3906 0.019578 0.102384 -3.020363
2011-08-17 07:12:00 51°16.096 2°53.964 22.3953 0.019578 0.102385 -3.020363
2011-08-17 07:12:05 51°16.095 2°53.963 22.4 0.019578 0.102385 -3.020363
2011-08-17 07:12:10 51°16.095 2°53.961 22.4034 0.019578 0.102387 -3.020363
2011-08-17 07:12:14 51°16.094 2°53.96 22.4081 0.019578 0.102388 -3.020363
2011-08-17 07:12:20 51°16.093 2°53.959 22.409 0.019578 0.102388 -3.020363
2011-08-17 07:12:25 51°16.092 2°53.958 22.4111 0.019578 0.102388 -3.020363
2011-08-17 07:12:30 51°16.09 2°53.957 22.4111 0.019578 0.102388 -3.020363
2011-08-17 07:12:35 51°16.089 2°53.957 22.4171 0.019578 0.102388 -3.020363
2011-08-17 07:12:40 51°16.087 2°53.956 22.4202 0.019578 0.10239 -3.020363
2011-08-17 07:12:45 51°16.085 2°53.956 22.4215 0.019578 0.10239 -3.020363
2011-08-17 07:12:50 51°16.083 2°53.957 22.4221 0.019578 0.102391 -3.020363
2011-08-17 07:12:55 51°16.08 2°53.958 22.4211 0.019578 0.102393 -3.020363
2011-08-17 07:13:00 51°16.077 2°53.96 22.4181 0.019578 0.102393 -3.020363
2011-08-17 07:13:05 51°16.075 2°53.963 22.4281 0.019578 0.102393 -3.020363
2011-08-17 07:13:10 51°16.073 2°53.967 22.434 0.019578 0.102393 -3.020363
2011-08-17 07:13:15 51°16.071 2°53.971 22.4384 0.019578 0.102393 -3.020363
2011-08-17 07:13:20 51°16.069 2°53.976 22.4417 0.019578 0.102396 -3.020363
2011-08-17 07:13:25 51°16.069 2°53.982 22.4392 0.019578 0.102399 -3.020363
2011-08-17 07:13:30 51°16.068 2°53.988 22.4402 0.019578 0.102399 -3.020363
2011-08-17 07:13:35 51°16.069 2°53.994 22.4429 0.019578 0.102399 -3.020363
2011-08-17 07:13:40 51°16.07 2°54 22.4447 0.019578 0.102399 -3.020363
2011-08-17 07:13:45 51°16.072 2°54.005 22.4486 0.019578 0.102399 -3.020363
2011-08-17 07:13:50 51°16.074 2°54.01 22.451 0.019578 0.1024 -3.020363
2011-08-17 07:13:54 51°16.077 2°54.014 22.4522 0.019578 0.102402 -3.020363
2011-08-17 07:14:00 51°16.081 2°54.019 22.4531 0.019578 0.102402 -3.020363
2011-08-17 07:14:05 51°16.085 2°54.022 22.4559 0.019578 0.102402 -3.020363
2011-08-17 07:14:10 51°16.089 2°54.024 22.4611 0.019578 0.102403 -3.020363
2011-08-17 07:14:14 51°16.093 2°54.024 22.4613 0.019578 0.102405 -3.020363
2011-08-17 07:14:20 51°16.099 2°54.024 22.4622 0.019578 0.102406 -3.020363
2011-08-17 07:14:25 51°16.105 2°54.023 22.4667 0.019578 0.102406 -3.020363
2011-08-17 07:14:30 51°16.11 2°54.02 22.4658 0.019578 0.102406 -3.020363
2011-08-17 07:14:34 51°16.115 2°54.017 22.4704 0.019578 0.102406 -3.020363
2011-08-17 07:14:40 51°16.121 2°54.011 22.474 0.019578 0.102406 -3.020363
2011-08-17 07:14:45 51°16.128 2°54.005 22.468 0.019578 0.102409 -3.020363
2011-08-17 07:14:50 51°16.136 2°53.997 22.4665 0.019578 0.102409 -3.020363
2011-08-17 07:14:54 51°16.143 2°53.991 22.4718 0.019578 0.102408 -3.020363
2011-08-17 07:15:00 51°16.154 2°53.979 22.4733 0.019578 0.102409 -3.020363
2011-08-17 07:15:05 51°16.164 2°53.969 22.4768 0.019578 0.102409 -3.020363
2011-08-17 07:15:10 51°16.175 2°53.958 22.4645 0.019578 0.102411 -3.020363
2011-08-17 07:15:15 51°16.187 2°53.946 22.4713 0.019578 0.102411 -3.020363
2011-08-17 07:15:20 51°16.2 2°53.933 22.4742 0.019578 0.102411 -3.020363
2011-08-17 07:15:25 51°16.213 2°53.92 22.4811 0.019578 0.102412 -3.020363
2011-08-17 07:15:30 51°16.226 2°53.907 22.4759 0.019578 0.102414 -3.020363
2011-08-17 07:15:34 51°16.237 2°53.895 22.4849 0.019578 0.102414 -3.020363
2011-08-17 07:15:40 51°16.253 2°53.876 22.4849 0.019578 0.102412 -3.020363
2011-08-17 07:15:45 51°16.267 2°53.861 22.4822 0.019578 0.102414 -3.020363
2011-08-17 07:15:50 51°16.28 2°53.844 22.4747 0.019578 0.102417 -3.020363
2011-08-17 07:15:55 51°16.294 2°53.828 22.4885 0.019578 0.102417 -3.020363
2011-08-17 07:16:00 51°16.308 2°53.812 22.4976 0.019578 0.102415 -3.020363
2011-08-17 07:16:05 51°16.323 2°53.796 22.5015 0.019578 0.102415 -3.020363
2011-08-17 07:16:10 51°16.337 2°53.78 22.4999 0.019578 0.102418 -3.020363
2011-08-17 07:16:14 51°16.348 2°53.766 22.4951 0.019578 0.102418 -3.020363
2011-08-17 07:16:20 51°16.365 2°53.746 22.4922 0.019578 0.102418 -3.020363
2011-08-17 07:16:25 51°16.379 2°53.729 22.5019 0.019578 0.102421 -3.020363
2011-08-17 07:16:30 51°16.393 2°53.712 22.5063 0.019578 0.102421 -3.020363
2011-08-17 07:16:35 51°16.407 2°53.695 22.5068 0.019578 0.102421 -3.020363
2011-08-17 07:16:39 51°16.418 2°53.681 22.5067 0.019578 0.10242 -3.020363
2011-08-17 07:16:45 51°16.435 2°53.661 22.5115 0.019578 0.102423 -3.020363
2011-08-17 07:16:50 51°16.449 2°53.644 22.5142 0.019578 0.102423 -3.020363
2011-08-17 07:16:54 51°16.46 2°53.63 22.517 0.019578 0.102423 -3.020363
2011-08-17 07:17:00 51°16.477 2°53.61 22.5197 0.019578 0.102426 -3.020363
2011-08-17 07:17:05 51°16.491 2°53.593 22.5175 0.019578 0.102426 -3.020363
2011-08-17 07:17:10 51°16.506 2°53.577 22.5231 0.019578 0.102424 -3.020363
2011-08-17 07:17:14 51°16.517 2°53.564 22.5215 0.019578 0.102426 -3.020363
2011-08-17 07:17:20 51°16.534 2°53.544 22.5299 0.019578 0.102427 -3.020363
2011-08-17 07:17:25 51°16.548 2°53.528 22.5258 0.019578 0.102427 -3.020363
2011-08-17 07:17:30 51°16.563 2°53.511 22.532 0.019578 0.102429 -3.020363
2011-08-17 07:17:34 51°16.574 2°53.498 22.5379 0.019578 0.102429 -3.020363
2011-08-17 07:17:40 51°16.591 2°53.479 22.5367 0.019578 0.10243 -3.020363
2011-08-17 07:17:45 51°16.606 2°53.463 22.5316 0.019578 0.10243 -3.020363
2011-08-17 07:17:50 51°16.62 2°53.446 22.531 0.019578 0.102432 -3.020363
2011-08-17 07:17:55 51°16.635 2°53.43 22.5463 0.019578 0.102432 -3.020363
2011-08-17 07:18:00 51°16.649 2°53.415 22.5494 0.019578 0.102433 -3.020363
2011-08-17 07:18:05 51°16.664 2°53.398 22.5444 0.019578 0.102433 -3.020363
2011-08-17 07:18:10 51°16.678 2°53.381 22.5494 0.019578 0.102433 -3.020363
2011-08-17 07:18:14 51°16.689 2°53.368 22.5453 0.019578 0.102433 -3.020363
2011-08-17 07:18:20 51°16.706 2°53.347 22.5536 0.019578 0.102437 -3.020363
2011-08-17 07:18:25 51°16.719 2°53.329 22.5589 0.019578 0.102435 -3.020363
2011-08-17 07:18:30 51°16.733 2°53.311 22.5603 0.019578 0.102437 -3.020363
2011-08-17 07:18:34 51°16.744 2°53.297 22.5534 0.019578 0.102437 -3.020363
2011-08-17 07:18:40 51°16.76 2°53.275 22.5596 0.019578 0.102438 -3.020363
2011-08-17 07:18:45 51°16.773 2°53.256 22.5575 0.019578 0.102438 -3.020363
2011-08-17 07:18:50 51°16.787 2°53.238 22.5617 0.019578 0.102441 -3.020363
2011-08-17 07:18:54 51°16.797 2°53.223 22.569 0.019578 0.10244 -3.020363
2011-08-17 07:18:59 51°16.811 2°53.205 22.5634 0.019578 0.102443 -3.020363
2011-08-17 07:19:05 51°16.827 2°53.183 22.5706 0.019578 0.102443 -3.020363
2011-08-17 07:19:10 51°16.84 2°53.164 22.5741 0.019578 0.102441 -3.020363
2011-08-17 07:19:14 51°16.85 2°53.15 22.5774 0.019578 0.102443 -3.020363
2011-08-17 07:19:20 51°16.866 2°53.129 22.5741 0.019578 0.102444 -3.020363
2011-08-17 07:19:25 51°16.879 2°53.111 22.5799 0.019578 0.102444 -3.020363
2011-08-17 07:19:30 51°16.893 2°53.094 22.5796 0.019578 0.102446 -3.020363
2011-08-17 07:19:34 51°16.903 2°53.08 22.5791 0.019578 0.102446 -3.020363
2011-08-17 07:19:40 51°16.919 2°53.059 22.5865 0.019578 0.102444 -3.020363
2011-08-17 07:19:45 51°16.932 2°53.042 22.5829 0.019578 0.102449 -3.020363
2011-08-17 07:19:50 51°16.945 2°53.025 22.588 0.019578 0.102447 -3.020363
2011-08-17 07:19:55 51°16.958 2°53.008 22.586 0.019578 0.10245 -3.020363
2011-08-17 07:20:00 51°16.971 2°52.99 22.5851 0.019578 0.102449 -3.020363
2011-08-17 07:20:05 51°16.984 2°52.972 22.5949 0.019578 0.102449 -3.020363
2011-08-17 07:20:10 51°16.998 2°52.955 22.5981 0.019578 0.102452 -3.020363
2011-08-17 07:20:15 51°17.011 2°52.937 22.6013 0.019578 0.10245 -3.020363
2011-08-17 07:20:20 51°17.025 2°52.92 22.6002 0.019578 0.102453 -3.020363
2011-08-17 07:20:25 51°17.038 2°52.902 22.5934 0.019578 0.102452 -3.020363
2011-08-17 07:20:30 51°17.052 2°52.884 22.6004 0.019578 0.102455 -3.020363
2011-08-17 07:20:34 51°17.063 2°52.871 22.5974 0.019578 0.102455 -3.020363
2011-08-17 07:20:40 51°17.08 2°52.85 22.6076 0.019578 0.102453 -3.020363
2011-08-17 07:20:45 51°17.094 2°52.833 22.6092 0.019578 0.102458 -3.020363
2011-08-17 07:20:50 51°17.108 2°52.816 22.6083 0.019578 0.102455 -3.020363
2011-08-17 07:20:54 51°17.119 2°52.803 22.6136 0.019578 0.102458 -3.020363
2011-08-17 07:21:00 51°17.136 2°52.783 22.6175 0.019578 0.102458 -3.020363
2011-08-17 07:21:05 51°17.151 2°52.767 22.6201 0.019578 0.102458 -3.020363
2011-08-17 07:21:10 51°17.165 2°52.751 22.6209 0.019578 0.102459 -3.020363
2011-08-17 07:21:14 51°17.176 2°52.738 22.6251 0.019578 0.102459 -3.020363
2011-08-17 07:21:20 51°17.193 2°52.717 22.6277 0.019578 0.102462 -3.020363
2011-08-17 07:21:25 51°17.207 2°52.701 22.6241 0.019578 0.102462 -3.020363
2011-08-17 07:21:30 51°17.22 2°52.683 22.6197 0.019578 0.102464 -3.020363
2011-08-17 07:21:34 51°17.231 2°52.67 22.6288 0.019578 0.102464 -3.020363
2011-08-17 07:21:40 51°17.248 2°52.649 22.6298 0.019578 0.102464 -3.020363
2011-08-17 07:21:45 51°17.261 2°52.631 22.6361 0.019578 0.102465 -3.020363
2011-08-17 07:21:50 51°17.275 2°52.614 22.6349 0.019578 0.102465 -3.020363
2011-08-17 07:21:55 51°17.289 2°52.596 22.6372 0.019578 0.102467 -3.020363
2011-08-17 07:21:59 51°17.3 2°52.581 22.6393 0.019578 0.102468 -3.020363
2011-08-17 07:22:05 51°17.316 2°52.559 22.6412 0.019578 0.102468 -3.020363
2011-08-17 07:22:10 51°17.329 2°52.541 22.6411 0.019578 0.102467 -3.020363
2011-08-17 07:22:14 51°17.339 2°52.526 22.6432 0.019578 0.10247 -3.020363
2011-08-17 07:22:20 51°17.355 2°52.503 22.6436 0.019578 0.102468 -3.020363
2011-08-17 07:22:25 51°17.368 2°52.485 22.646 0.019578 0.102471 -3.020363
2011-08-17 07:22:30 51°17.381 2°52.466 22.6432 0.019578 0.102471 -3.020363
2011-08-17 07:22:34 51°17.392 2°52.451 22.6415 0.019578 0.102471 -3.020363
2011-08-17 07:22:40 51°17.408 2°52.43 22.6581 0.019578 0.102471 -3.020363
2011-08-17 07:22:45 51°17.422 2°52.412 22.6581 0.019578 0.102474 -3.020363
2011-08-17 07:22:50 51°17.435 2°52.394 22.6617 0.019578 0.102473 -3.020363
2011-08-17 07:22:54 51°17.446 2°52.38 22.6513 0.019578 0.102476 -3.020363
2011-08-17 07:23:00 51°17.463 2°52.359 22.6675 0.019578 0.102476 -3.020363
2011-08-17 07:23:05 51°17.476 2°52.342 22.6619 0.019578 0.102476 -3.020363
2011-08-17 07:23:10 51°17.49 2°52.324 22.6669 0.019578 0.102476 -3.020363
2011-08-17 07:23:14 51°17.501 2°52.31 22.6682 0.019578 0.102477 -3.020363
2011-08-17 07:23:20 51°17.517 2°52.29 22.6717 0.019578 0.102477 -3.020363
2011-08-17 07:23:25 51°17.531 2°52.272 22.6711 0.019578 0.102479 -3.020363
2011-08-17 07:23:30 51°17.545 2°52.255 22.6796 0.019578 0.10248 -3.020363
2011-08-17 07:23:34 51°17.556 2°52.241 22.6782 0.019578 0.10248 -3.020363
2011-08-17 07:23:40 51°17.573 2°52.22 22.6769 0.019578 0.102479 -3.020363
2011-08-17 07:23:45 51°17.586 2°52.203 22.6797 0.019578 0.102482 -3.020363
2011-08-17 07:23:50 51°17.6 2°52.184 22.679 0.019578 0.10248 -3.020363
2011-08-17 07:23:55 51°17.614 2°52.166 22.6768 0.019578 0.102482 -3.020363
2011-08-17 07:24:00 51°17.627 2°52.148 22.6877 0.019578 0.102483 -3.020363
2011-08-17 07:24:05 51°17.641 2°52.13 22.6949 0.019578 0.102483 -3.020363
2011-08-17 07:24:10 51°17.654 2°52.111 22.6917 0.019578 0.102483 -3.020363
2011-08-17 07:24:14 51°17.664 2°52.096 22.6925 0.019578 0.102485 -3.020363
2011-08-17 07:24:20 51°17.679 2°52.073 22.6919 0.019578 0.102486 -3.020363
2011-08-17 07:24:25 51°17.692 2°52.053 22.7018 0.019578 0.102486 -3.020363
2011-08-17 07:24:30 51°17.704 2°52.033 22.6981 0.019578 0.102486 -3.020363
2011-08-17 07:24:34 51°17.714 2°52.017 22.7055 0.019578 0.102486 -3.020363
2011-08-17 07:24:40 51°17.729 2°51.993 22.7009 0.019578 0.102489 -3.020363
2011-08-17 07:24:45 51°17.741 2°51.972 22.7032 0.019578 0.102488 -3.020363
2011-08-17 07:24:50 51°17.753 2°51.952 22.7072 0.019578 0.102489 -3.020363
2011-08-17 07:24:54 51°17.763 2°51.936 22.7137 0.019578 0.102491 -3.020363
2011-08-17 07:25:00 51°17.777 2°51.911 22.7053 0.019578 0.102491 -3.020363
2011-08-17 07:25:05 51°17.79 2°51.891 22.7154 0.019578 0.102491 -3.020363
2011-08-17 07:25:10 51°17.802 2°51.871 22.7082 0.019578 0.102491 -3.020363
2011-08-17 07:25:14 51°17.811 2°51.855 22.7168 0.019578 0.102492 -3.020363
2011-08-17 07:25:20 51°17.826 2°51.831 22.7173 0.019578 0.102492 -3.020363
2011-08-17 07:25:25 51°17.839 2°51.811 22.7225 0.019578 0.102492 -3.020363
2011-08-17 07:25:30 51°17.851 2°51.791 22.7276 0.019578 0.102495 -3.020363
2011-08-17 07:25:34 51°17.861 2°51.775 22.7197 0.019578 0.102495 -3.020363
2011-08-17 07:25:39 51°17.874 2°51.755 22.71 0.019578 0.102495 -3.020363
2011-08-17 07:25:45 51°17.889 2°51.731 22.7095 0.019578 0.102494 -3.020363
2011-08-17 07:25:50 51°17.902 2°51.712 22.725 0.019578 0.102497 -3.020363
2011-08-17 07:25:55 51°17.915 2°51.694 22.7285 0.019578 0.102497 -3.020363
2011-08-17 07:26:00 51°17.929 2°51.675 22.7322 0.019578 0.102497 -3.020363
2011-08-17 07:26:05 51°17.942 2°51.658 22.7281 0.019578 0.102497 -3.020363
2011-08-17 07:26:10 51°17.956 2°51.64 22.738 0.019578 0.102497 -3.020363
2011-08-17 07:26:14 51°17.967 2°51.626 22.7407 0.019578 0.102498 -3.020363
2011-08-17 07:26:20 51°17.984 2°51.605 22.7433 0.019578 0.1025 -3.020363
2011-08-17 07:26:25 51°17.997 2°51.587 22.7477 0.019578 0.102498 -3.020363
2011-08-17 07:26:30 51°18.011 2°51.569 22.7442 0.019578 0.1025 -3.020363
2011-08-17 07:26:34 51°18.022 2°51.555 22.7487 0.019578 0.1025 -3.020363
2011-08-17 07:26:40 51°18.039 2°51.533 22.752 0.019578 0.102503 -3.020363
2011-08-17 07:26:45 51°18.052 2°51.515 22.7571 0.019578 0.102503 -3.020363
2011-08-17 07:26:50 51°18.066 2°51.497 22.7563 0.019578 0.102501 -3.020363
2011-08-17 07:26:55 51°18.08 2°51.478 22.7581 0.019578 0.102504 -3.020363
2011-08-17 07:27:00 51°18.093 2°51.46 22.7549 0.019578 0.102506 -3.020363
2011-08-17 07:27:05 51°18.107 2°51.441 22.7649 0.019578 0.102506 -3.020363
2011-08-17 07:27:10 51°18.12 2°51.422 22.7619 0.019578 0.102506 -3.020363
2011-08-17 07:27:14 51°18.13 2°51.407 22.7678 0.019578 0.102504 -3.020363
2011-08-17 07:27:20 51°18.146 2°51.383 22.77 0.019578 0.102506 -3.020363
2011-08-17 07:27:25 51°18.159 2°51.363 22.7674 0.019578 0.102507 -3.020363
2011-08-17 07:27:30 51°18.171 2°51.342 22.7601 0.019578 0.102509 -3.020363
2011-08-17 07:27:34 51°18.181 2°51.326 22.7689 0.019578 0.102509 -3.020363
2011-08-17 07:27:39 51°18.194 2°51.305 22.7672 0.019578 0.102509 -3.020363
2011-08-17 07:27:45 51°18.208 2°51.28 22.7678 0.019578 0.102509 -3.020363
2011-08-17 07:27:50 51°18.221 2°51.26 22.7715 0.019578 0.10251 -3.020363
2011-08-17 07:27:54 51°18.231 2°51.244 22.754 0.019578 0.102512 -3.020363
2011-08-17 07:28:00 51°18.247 2°51.22 22.7564 0.019578 0.102512 -3.020363
2011-08-17 07:28:05 51°18.26 2°51.201 22.7679 0.019578 0.102512 -3.020363
2011-08-17 07:28:10 51°18.273 2°51.183 22.7648 0.019578 0.102512 -3.020363
2011-08-17 07:28:14 51°18.284 2°51.17 22.7603 0.019578 0.102512 -3.020363
2011-08-17 07:28:20 51°18.299 2°51.151 22.7822 0.019578 0.102512 -3.020363
2011-08-17 07:28:25 51°18.312 2°51.136 22.7825 0.019578 0.102515 -3.020363
2011-08-17 07:28:30 51°18.325 2°51.123 22.79 0.019578 0.102516 -3.020363
2011-08-17 07:28:34 51°18.335 2°51.113 22.7872 0.019578 0.102516 -3.020363
2011-08-17 07:28:40 51°18.349 2°51.099 22.7961 0.019578 0.102516 -3.020363
2011-08-17 07:28:45 51°18.361 2°51.089 22.7938 0.019578 0.102515 -3.020363
2011-08-17 07:28:50 51°18.372 2°51.079 22.7961 0.019578 0.102515 -3.020363
2011-08-17 07:28:55 51°18.383 2°51.071 22.8028 0.019578 0.102516 -3.020363
2011-08-17 07:29:00 51°18.392 2°51.063 22.8026 0.019578 0.102518 -3.020363
2011-08-17 07:29:05 51°18.403 2°51.055 22.8001 0.019578 0.102518 -3.020363
2011-08-17 07:29:10 51°18.411 2°51.049 22.8079 0.019578 0.10252 -3.020363
2011-08-17 07:29:15 51°18.419 2°51.044 22.8087 0.019578 0.10252 -3.020363
2011-08-17 07:29:20 51°18.427 2°51.039 22.8164 0.019578 0.10252 -3.020363
2011-08-17 07:29:25 51°18.435 2°51.036 22.8159 0.019578 0.10252 -3.020363
2011-08-17 07:29:30 51°18.442 2°51.033 22.8141 0.019578 0.102521 -3.020363
2011-08-17 07:29:34 51°18.447 2°51.031 22.8216 0.019578 0.102521 -3.020363
2011-08-17 07:29:40 51°18.454 2°51.029 22.8224 0.019578 0.102521 -3.020363
2011-08-17 07:29:45 51°18.46 2°51.027 22.8204 0.019578 0.102523 -3.020363
2011-08-17 07:29:50 51°18.465 2°51.026 22.8247 0.019578 0.102524 -3.020363
2011-08-17 07:29:54 51°18.47 2°51.025 22.827 0.019578 0.102526 -3.020363
2011-08-17 07:29:59 51°18.474 2°51.024 22.8264 0.019578 0.102524 -3.020363
2011-08-17 07:30:05 51°18.48 2°51.024 22.8311 0.019578 0.102524 -3.020363
2011-08-17 07:30:10 51°18.484 2°51.023 22.8331 0.019578 0.102524 -3.020363
2011-08-17 07:30:14 51°18.488 2°51.023 22.8355 0.019578 0.102524 -3.020363
2011-08-17 07:30:20 51°18.492 2°51.023 22.8347 0.019578 0.102526 -3.020363
2011-08-17 07:30:25 51°18.496 2°51.022 22.8365 0.019578 0.102526 -3.020363
2011-08-17 07:30:30 51°18.5 2°51.021 22.8414 0.019578 0.102529 -3.020363
2011-08-17 07:30:35 51°18.502 2°51.021 22.8441 0.019578 0.102529 -3.020363
2011-08-17 07:30:39 51°18.504 2°51.02 22.8451 0.019578 0.102529 -3.020363
2011-08-17 07:30:45 51°18.507 2°51.018 22.8531 0.019578 0.10253 -3.020363
2011-08-17 07:30:50 51°18.509 2°51.017 22.8542 0.019578 0.102532 -3.020363
2011-08-17 07:30:54 51°18.51 2°51.016 22.855 0.019578 0.102532 -3.020363
2011-08-17 07:31:00 51°18.511 2°51.014 22.8554 0.019578 0.10253 -3.020363
2011-08-17 07:31:05 51°18.513 2°51.012 22.856 0.019578 0.10253 -3.020363
2011-08-17 07:31:10 51°18.514 2°51.011 22.8576 0.019578 0.102532 -3.020363
2011-08-17 07:31:15 51°18.516 2°51.009 22.8599 0.019578 0.102532 -3.020363
2011-08-17 07:31:20 51°18.517 2°51.007 22.8663 0.019578 0.102532 -3.020363
2011-08-17 07:31:25 51°18.518 2°51.005 22.864 0.019578 0.102533 -3.020363
2011-08-17 07:31:30 51°18.519 2°51.003 22.8658 0.019578 0.102535 -3.020363
2011-08-17 07:31:34 51°18.52 2°51.002 22.8701 0.019578 0.102535 -3.020363
2011-08-17 07:31:40 51°18.521 2°50.999 22.8714 0.019578 0.102535 -3.020363
2011-08-17 07:31:45 51°18.522 2°50.997 22.8698 0.019578 0.102536 -3.020363
2011-08-17 07:31:50 51°18.523 2°50.995 22.8719 0.019578 0.102536 -3.020363
2011-08-17 07:31:54 51°18.524 2°50.993 22.8792 0.019578 0.102538 -3.020363
2011-08-17 07:32:00 51°18.525 2°50.991 22.8795 0.019578 0.102539 -3.020363
2011-08-17 07:32:05 51°18.525 2°50.988 22.883 0.019578 0.102539 -3.020363
2011-08-17 07:32:10 51°18.526 2°50.986 22.8872 0.019578 0.102539 -3.020363
2011-08-17 07:32:14 51°18.527 2°50.985 22.8869 0.019578 0.102541 -3.020363
2011-08-17 07:32:20 51°18.528 2°50.982 22.8894 0.019578 0.102541 -3.020363
2011-08-17 07:32:25 51°18.529 2°50.98 22.891 0.019578 0.102541 -3.020363
2011-08-17 07:32:30 51°18.529 2°50.978 22.8931 0.019578 0.102541 -3.020363
2011-08-17 07:32:34 51°18.53 2°50.976 22.8961 0.019578 0.102541 -3.020363
2011-08-17 07:32:40 51°18.531 2°50.973 22.8932 0.019578 0.102542 -3.020363
2011-08-17 07:32:45 51°18.531 2°50.971 22.8918 0.019578 0.102544 -3.020363
2011-08-17 07:32:50 51°18.532 2°50.969 22.8969 0.019578 0.102544 -3.020363
2011-08-17 07:32:54 51°18.533 2°50.967 22.8981 0.019578 0.102544 -3.020363
2011-08-17 07:33:00 51°18.533 2°50.965 22.8997 0.019578 0.102545 -3.020363
2011-08-17 07:33:05 51°18.534 2°50.963 22.9067 0.019578 0.102545 -3.020363
2011-08-17 07:33:10 51°18.534 2°50.96 22.9078 0.019578 0.102544 -3.020363
2011-08-17 07:33:15 51°18.535 2°50.958 22.91 0.019578 0.102545 -3.020363
2011-08-17 07:33:20 51°18.535 2°50.956 22.9129 0.019578 0.102545 -3.020363
2011-08-17 07:33:25 51°18.535 2°50.954 22.9148 0.019578 0.102547 -3.020363
2011-08-17 07:33:30 51°18.536 2°50.951 22.9167 0.019578 0.102548 -3.020363
2011-08-17 07:33:35 51°18.536 2°50.949 22.9124 0.019578 0.102548 -3.020363
2011-08-17 07:33:40 51°18.537 2°50.947 22.9153 0.019578 0.102548 -3.020363
2011-08-17 07:33:45 51°18.537 2°50.945 22.9182 0.019578 0.102548 -3.020363
2011-08-17 07:33:50 51°18.537 2°50.943 22.9253 0.019578 0.102548 -3.020363
2011-08-17 07:33:54 51°18.537 2°50.941 22.9234 0.019578 0.10255 -3.020363
2011-08-17 07:34:00 51°18.538 2°50.938 22.9308 0.019578 0.10255 -3.020363
2011-08-17 07:34:05 51°18.538 2°50.936 22.9267 0.019578 0.10255 -3.020363
2011-08-17 07:34:10 51°18.538 2°50.934 22.9301 0.019578 0.102551 -3.020363
2011-08-17 07:34:14 51°18.539 2°50.932 22.9315 0.019578 0.102551 -3.020363
2011-08-17 07:34:19 51°18.539 2°50.93 22.933 0.019578 0.102551 -3.020363
2011-08-17 07:34:25 51°18.539 2°50.928 22.934 0.019578 0.10255 -3.020363
2011-08-17 07:34:30 51°18.539 2°50.925 22.9426 0.019578 0.102551 -3.020363
2011-08-17 07:34:34 51°18.54 2°50.924 22.9428 0.019578 0.102551 -3.020363
2011-08-17 07:34:40 51°18.54 2°50.921 22.9438 0.019578 0.102551 -3.020363
2011-08-17 07:34:45 51°18.54 2°50.919 22.9449 0.019578 0.102551 -3.020363
2011-08-17 07:34:50 51°18.54 2°50.917 22.95 0.019578 0.102553 -3.020363
2011-08-17 07:34:54 51°18.54 2°50.915 22.9485 0.019578 0.102553 -3.020363
2011-08-17 07:35:00 51°18.54 2°50.913 22.9529 0.019578 0.102554 -3.020363
2011-08-17 07:35:05 51°18.54 2°50.911 22.9554 0.019578 0.102554 -3.020363
2011-08-17 07:35:10 51°18.54 2°50.909 22.9572 0.019578 0.102554 -3.020363
2011-08-17 07:35:15 51°18.54 2°50.907 22.9579 0.019578 0.102556 -3.020363
2011-08-17 07:35:20 51°18.54 2°50.904 22.9624 0.019578 0.102557 -3.020363
2011-08-17 07:35:25 51°18.54 2°50.902 22.9618 0.019578 0.102557 -3.020363
2011-08-17 07:35:30 51°18.541 2°50.9 22.9634 0.019578 0.102559 -3.020363
2011-08-17 07:35:34 51°18.541 2°50.898 22.9674 0.019578 0.102559 -3.020363
2011-08-17 07:35:40 51°18.541 2°50.896 22.9695 0.019578 0.102557 -3.020363
2011-08-17 07:35:45 51°18.541 2°50.894 22.9705 0.019578 0.102557 -3.020363
2011-08-17 07:35:50 51°18.541 2°50.892 22.9753 0.019578 0.102557 -3.020363
2011-08-17 07:35:54 51°18.541 2°50.89 22.9763 0.019578 0.102559 -3.020363
2011-08-17 07:36:00 51°18.541 2°50.888 22.975 0.019578 0.102559 -3.020363
2011-08-17 07:36:05 51°18.541 2°50.886 22.977 0.019578 0.102559 -3.020363
2011-08-17 07:36:10 51°18.541 2°50.883 22.9795 0.019578 0.10256 -3.020363
2011-08-17 07:36:14 51°18.541 2°50.882 22.986 0.019578 0.102562 -3.020363
2011-08-17 07:36:20 51°18.541 2°50.88 22.9833 0.019578 0.102562 -3.020363
2011-08-17 07:36:25 51°18.541 2°50.878 22.9877 0.019578 0.102562 -3.020363
2011-08-17 07:36:30 51°18.541 2°50.876 22.9891 0.019578 0.102562 -3.020363
2011-08-17 07:36:34 51°18.54 2°50.874 22.9938 0.019578 0.102562 -3.020363
2011-08-17 07:36:40 51°18.54 2°50.872 22.9936 0.019578 0.102562 -3.020363
2011-08-17 07:36:45 51°18.54 2°50.87 22.9914 0.019578 0.102563 -3.020363
2011-08-17 07:36:50 51°18.54 2°50.868 22.9988 0.019578 0.102565 -3.020363
2011-08-17 07:36:55 51°18.54 2°50.866 22.9914 0.019578 0.102565 -3.020363
2011-08-17 07:36:59 51°18.54 2°50.864 22.9992 0.019578 0.102566 -3.020363
2011-08-17 07:37:05 51°18.54 2°50.862 23.0002 0.019578 0.102566 -3.020363
2011-08-17 07:37:10 51°18.539 2°50.86 23.0034 0.019578 0.102566 -3.020363
2011-08-17 07:37:15 51°18.539 2°50.858 23.0074 0.019578 0.102566 -3.020363
2011-08-17 07:37:20 51°18.539 2°50.856 23.0117 0.019578 0.102566 -3.020363
2011-08-17 07:37:25 51°18.539 2°50.855 23.0117 0.019578 0.102566 -3.020363
2011-08-17 07:37:30 51°18.539 2°50.853 23.0154 0.019578 0.102568 -3.020363
2011-08-17 07:37:34 51°18.538 2°50.851 23.0164 0.019578 0.102568 -3.020363
2011-08-17 07:37:40 51°18.538 2°50.849 23.0169 0.019578 0.102569 -3.020363
2011-08-17 07:37:45 51°18.538 2°50.847 23.0189 0.019578 0.102569 -3.020363
2011-08-17 07:37:50 51°18.538 2°50.845 23.022 0.019578 0.102568 -3.020363
2011-08-17 07:37:54 51°18.538 2°50.844 23.023 0.019578 0.102569 -3.020363
2011-08-17 07:38:00 51°18.537 2°50.841 23.0255 0.019578 0.102571 -3.020363
2011-08-17 07:38:05 51°18.537 2°50.84 23.0258 0.019578 0.102571 -3.020363
2011-08-17 07:38:10 51°18.537 2°50.838 23.0219 0.019578 0.102572 -3.020363
2011-08-17 07:38:15 51°18.537 2°50.836 23.0312 0.019578 0.102572 -3.020363
2011-08-17 07:38:20 51°18.537 2°50.834 23.0326 0.019578 0.102571 -3.020363
2011-08-17 07:38:25 51°18.536 2°50.832 23.0349 0.019578 0.102571 -3.020363
2011-08-17 07:38:30 51°18.536 2°50.831 23.0374 0.019578 0.102572 -3.020363
2011-08-17 07:38:34 51°18.536 2°50.829 23.042 0.019578 0.102572 -3.020363
2011-08-17 07:38:40 51°18.536 2°50.827 23.043 0.019578 0.102574 -3.020363
2011-08-17 07:38:45 51°18.535 2°50.825 23.0452 0.019578 0.102574 -3.020363
2011-08-17 07:38:50 51°18.535 2°50.823 23.0464 0.019578 0.102575 -3.020363
2011-08-17 07:38:54 51°18.535 2°50.822 23.0462 0.019578 0.102574 -3.020363
2011-08-17 07:39:00 51°18.534 2°50.82 23.0505 0.019578 0.102577 -3.020363
2011-08-17 07:39:05 51°18.534 2°50.818 23.0511 0.019578 0.102577 -3.020363
2011-08-17 07:39:10 51°18.534 2°50.816 23.0543 0.019578 0.102577 -3.020363
2011-08-17 07:39:15 51°18.534 2°50.814 23.0513 0.019578 0.102577 -3.020363